2016 Cux-Wetter.de -Die Nutzung der Wetterdaten nur mit ausdrcklicher Genehmigung
Wetterdaten: Donnerstag, 28.01.2016
Datum Zeit Temp. A. Feuchte A. Luftdruck Regen Wind Richtung Richtung Sonnenschein Solar Taupunkt Windchill Windben
28.01.2016 00:00 8,9 C 96 % 1004,5 hPa 0,0 l/m 19,1 km/h (3 Bft) SW 228 0 min 0 W/m 8,3 C 2,2 C 27,4 km/h (5 Bft)
28.01.2016 00:06 8,7 C 96 % 1004,6 hPa 0,2 l/m 15,6 km/h (3 Bft) W-SW 257 0 min 0 W/m 8,1 C 3,3 C 24,1 km/h (4 Bft)
28.01.2016 00:09 8,6 C 96 % 1004,6 hPa 0,2 l/m 16,6 km/h (3 Bft) W-SW 238 0 min 0 W/m 8,0 C 2,8 C 29,0 km/h (5 Bft)
28.01.2016 00:12 8,5 C 96 % 1004,7 hPa 0,0 l/m 20,0 km/h (4 Bft) SW 236 0 min 0 W/m 7,9 C 1,3 C 32,2 km/h (5 Bft)
28.01.2016 00:15 8,3 C 96 % 1004,7 hPa 0,0 l/m 15,9 km/h (3 Bft) SW 220 0 min 0 W/m 7,7 C 2,7 C 27,4 km/h (5 Bft)
28.01.2016 00:18 8,2 C 96 % 1004,7 hPa 0,0 l/m 17,1 km/h (3 Bft) S-SW 210 0 min 0 W/m 7,6 C 2,1 C 30,6 km/h (5 Bft)
28.01.2016 00:21 8,0 C 96 % 1004,7 hPa 0,0 l/m 14,3 km/h (3 Bft) SW 232 0 min 0 W/m 7,4 C 3,0 C 25,7 km/h (4 Bft)
28.01.2016 00:24 7,9 C 96 % 1004,8 hPa 0,0 l/m 14,0 km/h (3 Bft) W 267 0 min 0 W/m 7,3 C 3,1 C 25,7 km/h (4 Bft)
28.01.2016 00:27 7,8 C 96 % 1004,8 hPa 0,0 l/m 13,1 km/h (3 Bft) SW 229 0 min 0 W/m 7,2 C 3,4 C 24,1 km/h (4 Bft)
28.01.2016 00:30 7,7 C 96 % 1004,8 hPa 0,0 l/m 14,9 km/h (3 Bft) W-SW 237 0 min 0 W/m 7,1 C 2,4 C 27,4 km/h (5 Bft)
28.01.2016 00:33 7,6 C 96 % 1004,9 hPa 0,0 l/m 13,6 km/h (3 Bft) W 262 0 min 0 W/m 7,0 C 2,9 C 20,9 km/h (4 Bft)
28.01.2016 00:36 7,4 C 96 % 1004,8 hPa 0,0 l/m 14,0 km/h (3 Bft) W-NW 296 0 min 0 W/m 6,8 C 2,5 C 24,1 km/h (4 Bft)
28.01.2016 00:39 7,3 C 96 % 1004,9 hPa 0,0 l/m 15,8 km/h (3 Bft) W 267 0 min 0 W/m 6,7 C 1,5 C 27,4 km/h (5 Bft)
28.01.2016 00:42 7,3 C 96 % 1004,9 hPa 0,0 l/m 16,3 km/h (3 Bft) W 281 0 min 0 W/m 6,7 C 1,3 C 27,4 km/h (5 Bft)
28.01.2016 00:45 7,2 C 96 % 1005,0 hPa 0,0 l/m 15,8 km/h (3 Bft) W-SW 256 0 min 0 W/m 6,6 C 1,4 C 22,5 km/h (4 Bft)
28.01.2016 00:48 7,2 C 96 % 1005,1 hPa 0,0 l/m 16,1 km/h (3 Bft) W 273 0 min 0 W/m 6,6 C 1,2 C 24,1 km/h (4 Bft)
28.01.2016 00:51 7,1 C 96 % 1005,2 hPa 0,0 l/m 16,5 km/h (3 Bft) W-SW 255 0 min 0 W/m 6,5 C 0,9 C 29,0 km/h (5 Bft)
28.01.2016 00:54 7,1 C 96 % 1005,2 hPa 0,0 l/m 15,8 km/h (3 Bft) W-SW 252 0 min 0 W/m 6,5 C 1,3 C 30,6 km/h (5 Bft)
28.01.2016 00:57 7,0 C 97 % 1005,2 hPa 0,0 l/m 11,7 km/h (2 Bft) W-SW 246 0 min 0 W/m 6,6 C 3,2 C 22,5 km/h (4 Bft)
28.01.2016 01:00 6,9 C 96 % 1005,2 hPa 0,0 l/m 12,2 km/h (2 Bft) W-SW 252 0 min 0 W/m 6,3 C 2,8 C 20,9 km/h (4 Bft)
28.01.2016 01:03 6,9 C 96 % 1005,2 hPa 0,0 l/m 14,2 km/h (3 Bft) W-SW 250 0 min 0 W/m 6,3 C 1,8 C 22,5 km/h (4 Bft)
28.01.2016 01:06 6,9 C 96 % 1005,4 hPa 0,0 l/m 13,0 km/h (3 Bft) W-SW 257 0 min 0 W/m 6,3 C 2,4 C 24,1 km/h (4 Bft)
28.01.2016 01:09 6,9 C 96 % 1005,4 hPa 0,0 l/m 14,1 km/h (3 Bft) W-SW 244 0 min 0 W/m 6,3 C 1,8 C 24,1 km/h (4 Bft)
28.01.2016 01:12 6,8 C 96 % 1005,5 hPa 0,0 l/m 16,0 km/h (3 Bft) W 259 0 min 0 W/m 6,2 C 0,8 C 22,5 km/h (4 Bft)
28.01.2016 01:15 6,8 C 96 % 1005,4 hPa 0,0 l/m 18,3 km/h (3 Bft) W 264 0 min 0 W/m 6,2 C -0,2 C 27,4 km/h (5 Bft)
28.01.2016 01:18 6,8 C 96 % 1005,6 hPa 0,2 l/m 17,5 km/h (3 Bft) W-SW 241 0 min 0 W/m 6,2 C 0,1 C 27,4 km/h (5 Bft)
28.01.2016 01:21 6,8 C 96 % 1005,6 hPa 0,0 l/m 17,3 km/h (3 Bft) W-SW 242 0 min 0 W/m 6,2 C 0,2 C 25,7 km/h (4 Bft)
28.01.2016 01:24 6,7 C 96 % 1005,7 hPa 0,0 l/m 18,0 km/h (3 Bft) W-SW 241 0 min 0 W/m 6,1 C -0,2 C 27,4 km/h (5 Bft)
28.01.2016 01:27 6,7 C 96 % 1005,7 hPa 0,0 l/m 14,5 km/h (3 Bft) W 260 0 min 0 W/m 6,1 C 1,4 C 25,7 km/h (4 Bft)
28.01.2016 01:30 6,7 C 96 % 1005,8 hPa 0,0 l/m 12,9 km/h (3 Bft) W-SW 237 0 min 0 W/m 6,1 C 2,2 C 19,3 km/h (3 Bft)
28.01.2016 01:33 6,7 C 96 % 1005,8 hPa 0,0 l/m 14,4 km/h (3 Bft) W 274 0 min 0 W/m 6,1 C 1,4 C 25,7 km/h (4 Bft)
28.01.2016 01:36 6,7 C 96 % 1005,9 hPa 0,0 l/m 12,4 km/h (2 Bft) W 269 0 min 0 W/m 6,1 C 2,5 C 20,9 km/h (4 Bft)
28.01.2016 01:39 6,7 C 96 % 1005,9 hPa 0,0 l/m 17,4 km/h (3 Bft) SW 226 0 min 0 W/m 6,1 C 0,1 C 25,7 km/h (4 Bft)
28.01.2016 01:42 6,7 C 96 % 1005,8 hPa 0,0 l/m 12,4 km/h (2 Bft) NW 311 0 min 0 W/m 6,1 C 2,5 C 22,5 km/h (4 Bft)
28.01.2016 01:45 6,6 C 96 % 1005,9 hPa 0,0 l/m 15,0 km/h (3 Bft) W-SW 248 0 min 0 W/m 6,0 C 1,0 C 24,1 km/h (4 Bft)
28.01.2016 01:48 6,6 C 96 % 1005,9 hPa 0,0 l/m 13,5 km/h (3 Bft) SW 225 0 min 0 W/m 6,0 C 1,8 C 20,9 km/h (4 Bft)
28.01.2016 01:51 6,6 C 96 % 1006,0 hPa 0,0 l/m 15,3 km/h (3 Bft) W-SW 237 0 min 0 W/m 6,0 C 0,9 C 25,7 km/h (4 Bft)
28.01.2016 01:54 6,6 C 96 % 1006,0 hPa 0,0 l/m 15,3 km/h (3 Bft) W-SW 247 0 min 0 W/m 6,0 C 0,9 C 27,4 km/h (5 Bft)
28.01.2016 01:57 6,6 C 96 % 1006,0 hPa 0,0 l/m 12,9 km/h (3 Bft) W 277 0 min 0 W/m 6,0 C 2,1 C 22,5 km/h (4 Bft)
28.01.2016 02:00 6,6 C 96 % 1006,1 hPa 0,0 l/m 14,6 km/h (3 Bft) W 277 0 min 0 W/m 6,0 C 1,2 C 22,5 km/h (4 Bft)
28.01.2016 02:03 6,5 C 96 % 1006,1 hPa 0,0 l/m 13,6 km/h (3 Bft) W 275 0 min 0 W/m 5,9 C 1,6 C 29,0 km/h (5 Bft)
28.01.2016 02:06 6,5 C 96 % 1006,1 hPa 0,0 l/m 12,4 km/h (2 Bft) W-SW 248 0 min 0 W/m 5,9 C 2,3 C 20,9 km/h (4 Bft)
28.01.2016 02:09 6,4 C 96 % 1006,1 hPa 0,0 l/m 11,8 km/h (2 Bft) W 272 0 min 0 W/m 5,8 C 2,5 C 19,3 km/h (3 Bft)
28.01.2016 02:12 6,4 C 96 % 1006,2 hPa 0,0 l/m 12,0 km/h (2 Bft) SW 229 0 min 0 W/m 5,8 C 2,4 C 24,1 km/h (4 Bft)
28.01.2016 02:15 6,4 C 96 % 1006,3 hPa 0,0 l/m 14,0 km/h (3 Bft) W 267 0 min 0 W/m 5,8 C 1,3 C 24,1 km/h (4 Bft)
28.01.2016 02:18 6,3 C 95 % 1006,3 hPa 0,0 l/m 11,2 km/h (2 Bft) W-SW 244 0 min 0 W/m 5,6 C 2,7 C 16,1 km/h (3 Bft)
28.01.2016 02:21 6,3 C 95 % 1006,3 hPa 0,0 l/m 12,4 km/h (2 Bft) SW 233 0 min 0 W/m 5,6 C 2,0 C 20,9 km/h (4 Bft)
28.01.2016 02:24 6,3 C 95 % 1006,4 hPa 0,0 l/m 12,5 km/h (2 Bft) SW 229 0 min 0 W/m 5,6 C 2,0 C 17,7 km/h (3 Bft)
28.01.2016 02:27 6,3 C 95 % 1006,4 hPa 0,0 l/m 12,4 km/h (2 Bft) W 274 0 min 0 W/m 5,6 C 2,0 C 27,4 km/h (5 Bft)
28.01.2016 02:30 6,3 C 95 % 1006,4 hPa 0,0 l/m 12,4 km/h (2 Bft) W 276 0 min 0 W/m 5,6 C 2,0 C 19,3 km/h (3 Bft)
28.01.2016 02:33 6,3 C 95 % 1006,5 hPa 0,0 l/m 14,5 km/h (3 Bft) W-SW 258 0 min 0 W/m 5,6 C 0,9 C 22,5 km/h (4 Bft)
28.01.2016 02:36 6,3 C 95 % 1006,6 hPa 0,0 l/m 16,4 km/h (3 Bft) W 263 0 min 0 W/m 5,6 C -0,0 C 24,1 km/h (4 Bft)
28.01.2016 02:39 6,3 C 95 % 1006,6 hPa 0,0 l/m 14,3 km/h (3 Bft) W-SW 253 0 min 0 W/m 5,6 C 1,0 C 24,1 km/h (4 Bft)
28.01.2016 02:42 6,3 C 95 % 1006,5 hPa 0,0 l/m 12,0 km/h (2 Bft) W 271 0 min 0 W/m 5,6 C 2,3 C 22,5 km/h (4 Bft)
28.01.2016 02:45 6,3 C 95 % 1006,5 hPa 0,0 l/m 12,6 km/h (3 Bft) W-NW 282 0 min 0 W/m 5,6 C 1,9 C 22,5 km/h (4 Bft)
28.01.2016 02:48 6,3 C 95 % 1006,6 hPa 0,0 l/m 13,2 km/h (3 Bft) W-SW 251 0 min 0 W/m 5,6 C 1,6 C 22,5 km/h (4 Bft)
28.01.2016 02:51 6,3 C 95 % 1006,5 hPa 0,0 l/m 14,4 km/h (3 Bft) W 266 0 min 0 W/m 5,6 C 0,9 C 25,7 km/h (4 Bft)
28.01.2016 02:54 6,3 C 95 % 1006,5 hPa 0,0 l/m 14,0 km/h (3 Bft) W-SW 249 0 min 0 W/m 5,6 C 1,2 C 22,5 km/h (4 Bft)
28.01.2016 02:57 6,3 C 95 % 1006,7 hPa 0,0 l/m 15,8 km/h (3 Bft) W-SW 247 0 min 0 W/m 5,6 C 0,3 C 22,5 km/h (4 Bft)
28.01.2016 03:00 6,2 C 95 % 1006,7 hPa 0,0 l/m 11,2 km/h (2 Bft) W 264 0 min 0 W/m 5,5 C 2,6 C 22,5 km/h (4 Bft)
28.01.2016 03:03 6,2 C 95 % 1006,8 hPa 0,0 l/m 13,2 km/h (3 Bft) SW 219 0 min 0 W/m 5,5 C 1,5 C 20,9 km/h (4 Bft)
28.01.2016 03:06 6,2 C 95 % 1006,8 hPa 0,0 l/m 16,1 km/h (3 Bft) SW 226 0 min 0 W/m 5,5 C 0,0 C 22,5 km/h (4 Bft)
28.01.2016 03:09 6,2 C 95 % 1007,0 hPa 0,0 l/m 12,7 km/h (3 Bft) W 261 0 min 0 W/m 5,5 C 1,7 C 20,9 km/h (4 Bft)
28.01.2016 03:12 6,2 C 95 % 1006,9 hPa 0,0 l/m 13,0 km/h (3 Bft) W 273 0 min 0 W/m 5,5 C 1,6 C 20,9 km/h (4 Bft)
28.01.2016 03:15 6,2 C 95 % 1006,9 hPa 0,0 l/m 14,0 km/h (3 Bft) W-SW 258 0 min 0 W/m 5,5 C 1,0 C 22,5 km/h (4 Bft)
28.01.2016 03:18 6,2 C 95 % 1007,1 hPa 0,0 l/m 12,2 km/h (2 Bft) W-NW 284 0 min 0 W/m 5,5 C 2,0 C 20,9 km/h (4 Bft)
28.01.2016 03:21 6,2 C 95 % 1007,2 hPa 0,0 l/m 13,5 km/h (3 Bft) SW 221 0 min 0 W/m 5,5 C 1,3 C 20,9 km/h (4 Bft)
28.01.2016 03:24 6,3 C 95 % 1007,3 hPa 0,0 l/m 14,4 km/h (3 Bft) W-SW 250 0 min 0 W/m 5,6 C 0,9 C 24,1 km/h (4 Bft)
28.01.2016 03:27 6,3 C 95 % 1007,5 hPa 0,0 l/m 17,1 km/h (3 Bft) W 259 0 min 0 W/m 5,6 C -0,3 C 29,0 km/h (5 Bft)
28.01.2016 03:30 6,3 C 95 % 1007,4 hPa 0,0 l/m 15,0 km/h (3 Bft) SW 219 0 min 0 W/m 5,6 C 0,7 C 25,7 km/h (4 Bft)
28.01.2016 03:33 6,3 C 95 % 1007,4 hPa 0,0 l/m 12,1 km/h (2 Bft) W-SW 240 0 min 0 W/m 5,6 C 2,2 C 17,7 km/h (3 Bft)
28.01.2016 03:36 6,3 C 95 % 1007,4 hPa 0,0 l/m 12,1 km/h (2 Bft) W-SW 254 0 min 0 W/m 5,6 C 2,2 C 25,7 km/h (4 Bft)
28.01.2016 03:39 6,3 C 95 % 1007,4 hPa 0,0 l/m 12,6 km/h (3 Bft) W-SW 257 0 min 0 W/m 5,6 C 1,9 C 22,5 km/h (4 Bft)
28.01.2016 03:42 6,3 C 95 % 1007,4 hPa 0,0 l/m 9,7 km/h (2 Bft) SW 216 0 min 0 W/m 5,6 C 3,7 C 17,7 km/h (3 Bft)
28.01.2016 03:45 6,3 C 95 % 1007,6 hPa 0,0 l/m 9,7 km/h (2 Bft) W-SW 245 0 min 0 W/m 5,6 C 3,7 C 17,7 km/h (3 Bft)
28.01.2016 03:48 6,3 C 95 % 1007,5 hPa 0,0 l/m 11,0 km/h (2 Bft) W 264 0 min 0 W/m 5,6 C 2,9 C 20,9 km/h (4 Bft)
28.01.2016 03:51 6,2 C 95 % 1007,6 hPa 0,0 l/m 13,5 km/h (3 Bft) SW 228 0 min 0 W/m 5,5 C 1,3 C 25,7 km/h (4 Bft)
28.01.2016 03:54 6,2 C 95 % 1007,6 hPa 0,0 l/m 10,6 km/h (2 Bft) W-SW 248 0 min 0 W/m 5,5 C 3,0 C 22,5 km/h (4 Bft)
28.01.2016 03:57 6,2 C 95 % 1007,7 hPa 0,0 l/m 14,2 km/h (3 Bft) W-SW 245 0 min 0 W/m 5,5 C 0,9 C 22,5 km/h (4 Bft)
28.01.2016 04:00 6,3 C 95 % 1007,7 hPa 0,0 l/m 14,0 km/h (3 Bft) SW 230 0 min 0 W/m 5,6 C 1,2 C 25,7 km/h (4 Bft)
28.01.2016 04:03 6,3 C 95 % 1007,7 hPa 0,0 l/m 13,5 km/h (3 Bft) SW 221 0 min 0 W/m 5,6 C 1,4 C 27,4 km/h (5 Bft)
28.01.2016 04:06 6,3 C 95 % 1007,8 hPa 0,0 l/m 16,0 km/h (3 Bft) W-SW 245 0 min 0 W/m 5,6 C 0,2 C 25,7 km/h (4 Bft)
28.01.2016 04:09 6,3 C 95 % 1007,8 hPa 0,0 l/m 15,7 km/h (3 Bft) SW 229 0 min 0 W/m 5,6 C 0,3 C 29,0 km/h (5 Bft)
28.01.2016 04:12 6,3 C 95 % 1008,0 hPa 0,0 l/m 14,7 km/h (3 Bft) W-SW 241 0 min 0 W/m 5,6 C 0,8 C 30,6 km/h (5 Bft)
28.01.2016 04:15 6,4 C 95 % 1008,0 hPa 0,0 l/m 17,1 km/h (3 Bft) W 263 0 min 0 W/m 5,7 C -0,2 C 30,6 km/h (5 Bft)
28.01.2016 04:18 6,4 C 95 % 1008,0 hPa 0,0 l/m 18,1 km/h (3 Bft) W-SW 238 0 min 0 W/m 5,7 C -0,6 C 25,7 km/h (4 Bft)
28.01.2016 04:21 6,4 C 95 % 1007,9 hPa 0,0 l/m 14,1 km/h (3 Bft) W-SW 252 0 min 0 W/m 5,7 C 1,2 C 32,2 km/h (5 Bft)
28.01.2016 04:24 6,4 C 95 % 1007,9 hPa 0,0 l/m 12,3 km/h (2 Bft) W-SW 247 0 min 0 W/m 5,7 C 2,2 C 24,1 km/h (4 Bft)
28.01.2016 04:27 6,4 C 95 % 1008,2 hPa 0,0 l/m 17,6 km/h (3 Bft) SW 226 0 min 0 W/m 5,7 C -0,4 C 27,4 km/h (5 Bft)
28.01.2016 04:30 6,4 C 95 % 1008,1 hPa 0,0 l/m 17,5 km/h (3 Bft) SW 236 0 min 0 W/m 5,7 C -0,4 C 29,0 km/h (5 Bft)
28.01.2016 04:33 6,4 C 95 % 1008,1 hPa 0,0 l/m 17,3 km/h (3 Bft) W-NW 286 0 min 0 W/m 5,7 C -0,3 C 32,2 km/h (5 Bft)
28.01.2016 04:36 6,5 C 94 % 1008,3 hPa 0,0 l/m 19,0 km/h (3 Bft) W-SW 250 0 min 0 W/m 5,6 C -0,9 C 32,2 km/h (5 Bft)
28.01.2016 04:39 6,5 C 94 % 1008,4 hPa 0,0 l/m 15,8 km/h (3 Bft) W-SW 248 0 min 0 W/m 5,6 C 0,5 C 24,1 km/h (4 Bft)
28.01.2016 04:42 6,6 C 94 % 1008,4 hPa 0,0 l/m 19,1 km/h (3 Bft) W-SW 246 0 min 0 W/m 5,7 C -0,8 C 37,0 km/h (5 Bft)
28.01.2016 04:45 6,6 C 94 % 1008,4 hPa 0,0 l/m 18,7 km/h (3 Bft) W-NW 286 0 min 0 W/m 5,7 C -0,6 C 35,4 km/h (5 Bft)
28.01.2016 04:48 6,6 C 93 % 1008,5 hPa 0,0 l/m 17,6 km/h (3 Bft) W 269 0 min 0 W/m 5,6 C -0,2 C 29,0 km/h (5 Bft)
28.01.2016 04:51 6,6 C 93 % 1008,5 hPa 0,0 l/m 18,8 km/h (3 Bft) S-SW 212 0 min 0 W/m 5,6 C -0,6 C 33,8 km/h (5 Bft)
28.01.2016 04:54 6,6 C 93 % 1008,8 hPa 0,0 l/m 22,0 km/h (4 Bft) W-SW 244 0 min 0 W/m 5,6 C -1,8 C 33,8 km/h (5 Bft)
28.01.2016 04:57 6,6 C 93 % 1008,8 hPa 0,0 l/m 19,9 km/h (4 Bft) W 259 0 min 0 W/m 5,6 C -1,1 C 32,2 km/h (5 Bft)
28.01.2016 05:00 6,6 C 93 % 1008,9 hPa 0,0 l/m 18,3 km/h (3 Bft) SW 227 0 min 0 W/m 5,6 C -0,4 C 32,2 km/h (5 Bft)
28.01.2016 05:03 6,6 C 92 % 1008,9 hPa 0,0 l/m 17,8 km/h (3 Bft) W-SW 241 0 min 0 W/m 5,4 C -0,2 C 27,4 km/h (5 Bft)
28.01.2016 05:06 6,6 C 92 % 1008,8 hPa 0,0 l/m 17,1 km/h (3 Bft) W 277 0 min 0 W/m 5,4 C 0,1 C 24,1 km/h (4 Bft)
28.01.2016 05:09 6,6 C 92 % 1009,0 hPa 0,0 l/m 17,8 km/h (3 Bft) W-SW 250 0 min 0 W/m 5,4 C -0,2 C 27,4 km/h (5 Bft)
28.01.2016 05:12 6,5 C 92 % 1009,0 hPa 0,0 l/m 19,2 km/h (3 Bft) S-SW 211 0 min 0 W/m 5,3 C -0,9 C 30,6 km/h (5 Bft)
28.01.2016 05:15 6,4 C 91 % 1008,9 hPa 0,0 l/m 14,5 km/h (3 Bft) S-SW 213 0 min 0 W/m 5,0 C 1,0 C 22,5 km/h (4 Bft)
28.01.2016 05:18 6,4 C 92 % 1009,0 hPa 0,0 l/m 13,3 km/h (3 Bft) W-SW 258 0 min 0 W/m 5,2 C 1,6 C 20,9 km/h (4 Bft)
28.01.2016 05:21 6,4 C 91 % 1009,2 hPa 0,0 l/m 17,9 km/h (3 Bft) SW 222 0 min 0 W/m 5,0 C -0,5 C 27,4 km/h (5 Bft)
28.01.2016 05:24 6,3 C 91 % 1009,3 hPa 0,0 l/m 15,2 km/h (3 Bft) W-SW 240 0 min 0 W/m 4,9 C 0,6 C 27,4 km/h (5 Bft)
28.01.2016 05:27 6,3 C 91 % 1009,4 hPa 0,0 l/m 18,1 km/h (3 Bft) W-SW 239 0 min 0 W/m 4,9 C -0,7 C 25,7 km/h (4 Bft)
28.01.2016 05:30 6,3 C 91 % 1009,6 hPa 0,0 l/m 16,5 km/h (3 Bft) W-SW 239 0 min 0 W/m 4,9 C -0,1 C 25,7 km/h (4 Bft)
28.01.2016 05:33 6,3 C 91 % 1009,5 hPa 0,0 l/m 17,2 km/h (3 Bft) W-SW 247 0 min 0 W/m 4,9 C -0,4 C 29,0 km/h (5 Bft)
28.01.2016 05:36 6,3 C 91 % 1009,7 hPa 0,0 l/m 16,5 km/h (3 Bft) W-SW 250 0 min 0 W/m 4,9 C -0,1 C 24,1 km/h (4 Bft)
28.01.2016 05:39 6,2 C 91 % 1009,8 hPa 0,0 l/m 21,5 km/h (4 Bft) W-SW 248 0 min 0 W/m 4,8 C -2,2 C 30,6 km/h (5 Bft)
28.01.2016 05:42 6,3 C 91 % 1009,9 hPa 0,0 l/m 20,6 km/h (4 Bft) W 261 0 min 0 W/m 4,9 C -1,7 C 32,2 km/h (5 Bft)
28.01.2016 05:45 6,3 C 90 % 1009,9 hPa 0,0 l/m 23,8 km/h (4 Bft) W-SW 257 0 min 0 W/m 4,8 C -2,8 C 32,2 km/h (5 Bft)
28.01.2016 05:48 6,4 C 90 % 1010,1 hPa 0,0 l/m 18,5 km/h (3 Bft) W-SW 251 0 min 0 W/m 4,9 C -0,8 C 27,4 km/h (5 Bft)
28.01.2016 05:51 6,4 C 89 % 1010,1 hPa 0,0 l/m 16,6 km/h (3 Bft) W 267 0 min 0 W/m 4,7 C 0,0 C 25,7 km/h (4 Bft)
28.01.2016 05:54 6,4 C 89 % 1010,2 hPa 0,0 l/m 19,4 km/h (3 Bft) W 273 0 min 0 W/m 4,7 C -1,1 C 37,0 km/h (5 Bft)
28.01.2016 05:57 6,4 C 88 % 1010,2 hPa 0,0 l/m 19,3 km/h (3 Bft) W 273 0 min 0 W/m 4,6 C -1,1 C 33,8 km/h (5 Bft)
28.01.2016 06:00 6,4 C 89 % 1010,4 hPa 0,0 l/m 17,8 km/h (3 Bft) W 276 0 min 0 W/m 4,7 C -0,5 C 25,7 km/h (4 Bft)
28.01.2016 06:03 6,4 C 89 % 1010,5 hPa 0,0 l/m 16,4 km/h (3 Bft) W-NW 286 0 min 0 W/m 4,7 C 0,1 C 25,7 km/h (4 Bft)
28.01.2016 06:06 6,3 C 89 % 1010,7 hPa 0,0 l/m 15,6 km/h (3 Bft) SW 226 0 min 0 W/m 4,6 C 0,4 C 25,7 km/h (4 Bft)
28.01.2016 06:09 6,3 C 89 % 1010,7 hPa 0,0 l/m 15,7 km/h (3 Bft) W-SW 240 0 min 0 W/m 4,6 C 0,3 C 25,7 km/h (4 Bft)
28.01.2016 06:12 6,3 C 89 % 1010,7 hPa 0,0 l/m 14,5 km/h (3 Bft) W-SW 254 0 min 0 W/m 4,6 C 0,9 C 27,4 km/h (5 Bft)
28.01.2016 06:15 6,3 C 89 % 1010,7 hPa 0,0 l/m 12,4 km/h (2 Bft) W 260 0 min 0 W/m 4,6 C 2,0 C 25,7 km/h (4 Bft)
28.01.2016 06:18 6,2 C 89 % 1010,8 hPa 0,0 l/m 15,4 km/h (3 Bft) W 277 0 min 0 W/m 4,5 C 0,3 C 25,7 km/h (4 Bft)
28.01.2016 06:21 6,2 C 89 % 1010,9 hPa 0,0 l/m 15,2 km/h (3 Bft) W 267 0 min 0 W/m 4,5 C 0,4 C 22,5 km/h (4 Bft)
28.01.2016 06:24 6,2 C 89 % 1011,1 hPa 0,0 l/m 18,0 km/h (3 Bft) W-SW 244 0 min 0 W/m 4,5 C -0,8 C 27,4 km/h (5 Bft)
28.01.2016 06:27 6,2 C 90 % 1011,1 hPa 0,0 l/m 16,0 km/h (3 Bft) W-SW 240 0 min 0 W/m 4,7 C 0,1 C 25,7 km/h (4 Bft)
28.01.2016 06:30 6,2 C 90 % 1011,2 hPa 0,0 l/m 17,3 km/h (3 Bft) W-NW 290 0 min 0 W/m 4,7 C -0,5 C 33,8 km/h (5 Bft)
28.01.2016 06:33 6,2 C 89 % 1011,3 hPa 0,0 l/m 14,1 km/h (3 Bft) W-SW 242 0 min 0 W/m 4,5 C 1,0 C 27,4 km/h (5 Bft)
28.01.2016 06:36 6,1 C 89 % 1011,4 hPa 0,0 l/m 14,7 km/h (3 Bft) NW 309 0 min 0 W/m 4,4 C 0,6 C 30,6 km/h (5 Bft)
28.01.2016 06:39 6,1 C 89 % 1011,5 hPa 0,0 l/m 16,7 km/h (3 Bft) W-SW 244 0 min 0 W/m 4,4 C -0,4 C 29,0 km/h (5 Bft)
28.01.2016 06:42 6,1 C 89 % 1011,5 hPa 0,0 l/m 17,4 km/h (3 Bft) SW 226 0 min 0 W/m 4,4 C -0,7 C 30,6 km/h (5 Bft)
28.01.2016 06:45 6,1 C 89 % 1011,5 hPa 0,0 l/m 14,6 km/h (3 Bft) W-SW 251 0 min 0 W/m 4,4 C 0,6 C 20,9 km/h (4 Bft)
28.01.2016 06:48 6,1 C 89 % 1011,6 hPa 0,0 l/m 13,2 km/h (3 Bft) W 269 0 min 0 W/m 4,4 C 1,3 C 24,1 km/h (4 Bft)
28.01.2016 06:51 6,1 C 89 % 1011,6 hPa 0,0 l/m 17,0 km/h (3 Bft) W-SW 250 0 min 0 W/m 4,4 C -0,5 C 27,4 km/h (5 Bft)
28.01.2016 06:54 6,1 C 88 % 1011,7 hPa 0,0 l/m 14,4 km/h (3 Bft) W-SW 252 0 min 0 W/m 4,3 C 0,7 C 22,5 km/h (4 Bft)
28.01.2016 06:57 6,1 C 88 % 1011,9 hPa 0,0 l/m 15,1 km/h (3 Bft) W 262 0 min 0 W/m 4,3 C 0,4 C 24,1 km/h (4 Bft)
28.01.2016 07:00 6,0 C 88 % 1011,9 hPa 0,0 l/m 16,1 km/h (3 Bft) W-SW 242 0 min 0 W/m 4,2 C -0,2 C 25,7 km/h (4 Bft)
28.01.2016 07:03 6,0 C 88 % 1012,0 hPa 0,0 l/m 13,5 km/h (3 Bft) W 277 0 min 0 W/m 4,2 C 1,1 C 22,5 km/h (4 Bft)
28.01.2016 07:06 6,0 C 88 % 1012,1 hPa 0,0 l/m 13,3 km/h (3 Bft) SW 215 0 min 0 W/m 4,2 C 1,2 C 24,1 km/h (4 Bft)
28.01.2016 07:09 6,0 C 88 % 1012,2 hPa 0,0 l/m 14,6 km/h (3 Bft) SW 227 0 min 0 W/m 4,2 C 0,5 C 25,7 km/h (4 Bft)
28.01.2016 07:12 6,0 C 88 % 1012,3 hPa 0,0 l/m 14,6 km/h (3 Bft) W-SW 242 0 min 0 W/m 4,2 C 0,5 C 24,1 km/h (4 Bft)
28.01.2016 07:15 6,0 C 88 % 1012,4 hPa 0,0 l/m 16,1 km/h (3 Bft) W 267 0 min 0 W/m 4,2 C -0,2 C 30,6 km/h (5 Bft)
28.01.2016 07:18 6,0 C 88 % 1012,5 hPa 0,0 l/m 19,7 km/h (3 Bft) W-SW 255 0 min 0 W/m 4,2 C -1,8 C 27,4 km/h (5 Bft)
28.01.2016 07:21 5,9 C 88 % 1012,5 hPa 0,0 l/m 16,5 km/h (3 Bft) W-NW 292 0 min 0 W/m 4,1 C -0,5 C 29,0 km/h (5 Bft)
28.01.2016 07:24 5,9 C 88 % 1012,6 hPa 0,0 l/m 16,2 km/h (3 Bft) W-SW 257 0 min 0 W/m 4,1 C -0,4 C 27,4 km/h (5 Bft)
28.01.2016 07:27 5,9 C 88 % 1012,7 hPa 0,0 l/m 18,1 km/h (3 Bft) W-NW 296 0 min 0 W/m 4,1 C -1,2 C 27,4 km/h (5 Bft)
28.01.2016 07:30 5,9 C 88 % 1012,9 hPa 0,0 l/m 17,7 km/h (3 Bft) W-SW 246 0 min 0 W/m 4,1 C -1,1 C 30,6 km/h (5 Bft)
28.01.2016 07:33 5,9 C 87 % 1012,8 hPa 0,0 l/m 15,7 km/h (3 Bft) SW 228 0 min 0 W/m 3,9 C -0,2 C 30,6 km/h (5 Bft)
28.01.2016 07:36 5,9 C 87 % 1012,9 hPa 0,0 l/m 14,4 km/h (3 Bft) W 263 0 min 0 W/m 3,9 C 0,5 C 24,1 km/h (4 Bft)
28.01.2016 07:39 5,8 C 86 % 1012,9 hPa 0,0 l/m 16,7 km/h (3 Bft) W 267 0 min 0 W/m 3,6 C -0,8 C 29,0 km/h (5 Bft)
28.01.2016 07:42 5,8 C 86 % 1013,0 hPa 0,0 l/m 15,8 km/h (3 Bft) W-NW 291 0 min 0 W/m 3,6 C -0,3 C 25,7 km/h (4 Bft)
28.01.2016 07:45 5,8 C 86 % 1013,1 hPa 0,0 l/m 13,5 km/h (3 Bft) W-SW 248 0 min 0 W/m 3,6 C 0,8 C 20,9 km/h (4 Bft)
28.01.2016 07:48 5,8 C 86 % 1013,2 hPa 0,0 l/m 13,8 km/h (3 Bft) W 261 0 min 0 W/m 3,6 C 0,7 C 22,5 km/h (4 Bft)
28.01.2016 07:51 5,8 C 86 % 1013,3 hPa 0,0 l/m 16,2 km/h (3 Bft) W 266 0 min 0 W/m 3,6 C -0,5 C 29,0 km/h (5 Bft)
28.01.2016 07:54 5,8 C 86 % 1013,5 hPa 0,0 l/m 17,8 km/h (3 Bft) W 275 0 min 0 W/m 3,6 C -1,2 C 32,2 km/h (5 Bft)
28.01.2016 07:57 5,8 C 85 % 1013,5 hPa 0,0 l/m 17,3 km/h (3 Bft) W 274 0 min 0 W/m 3,5 C -1,0 C 33,8 km/h (5 Bft)
28.01.2016 08:00 5,8 C 84 % 1013,6 hPa 0,0 l/m 18,5 km/h (3 Bft) W 261 0 min 0 W/m 3,3 C -1,5 C 29,0 km/h (5 Bft)
28.01.2016 08:03 5,8 C 84 % 1013,7 hPa 0,0 l/m 16,1 km/h (3 Bft) W 273 0 min 0 W/m 3,3 C -0,5 C 32,2 km/h (5 Bft)
28.01.2016 08:06 5,8 C 84 % 1013,8 hPa 0,0 l/m 17,3 km/h (3 Bft) SW 235 0 min 0 W/m 3,3 C -1,0 C 30,6 km/h (5 Bft)
28.01.2016 08:09 5,8 C 84 % 1013,9 hPa 0,0 l/m 16,0 km/h (3 Bft) W-NW 291 0 min 0 W/m 3,3 C -0,4 C 24,1 km/h (4 Bft)
28.01.2016 08:12 5,8 C 84 % 1014,0 hPa 0,0 l/m 14,4 km/h (3 Bft) SW 228 0 min 0 W/m 3,3 C 0,3 C 22,5 km/h (4 Bft)
28.01.2016 08:15 5,8 C 85 % 1014,2 hPa 0,0 l/m 19,9 km/h (4 Bft) SW 229 0 min 0 W/m 3,5 C -2,1 C 30,6 km/h (5 Bft)
28.01.2016 08:18 5,8 C 85 % 1014,3 hPa 0,0 l/m 15,0 km/h (3 Bft) W-SW 257 0 min 0 W/m 3,5 C 0,0 C 27,4 km/h (5 Bft)
28.01.2016 08:21 5,8 C 85 % 1014,4 hPa 0,0 l/m 15,6 km/h (3 Bft) W-SW 255 0 min 0 W/m 3,5 C -0,2 C 30,6 km/h (5 Bft)
28.01.2016 08:24 5,8 C 84 % 1014,5 hPa 0,0 l/m 19,1 km/h (3 Bft) W-NW 292 0 min 0 W/m 3,3 C -1,8 C 32,2 km/h (5 Bft)
28.01.2016 08:27 5,8 C 84 % 1014,6 hPa 0,0 l/m 17,6 km/h (3 Bft) W-SW 238 0 min 0 W/m 3,3 C -1,2 C 30,6 km/h (5 Bft)
28.01.2016 08:30 5,8 C 83 % 1014,7 hPa 0,0 l/m 17,6 km/h (3 Bft) W-NW 289 0 min 5 W/m 3,1 C -1,2 C 37,0 km/h (5 Bft)
28.01.2016 08:33 5,8 C 83 % 1014,7 hPa 0,0 l/m 18,1 km/h (3 Bft) W 266 0 min 7 W/m 3,1 C -1,4 C 30,6 km/h (5 Bft)
28.01.2016 08:36 5,8 C 82 % 1014,7 hPa 0,0 l/m 17,3 km/h (3 Bft) W 279 0 min 9 W/m 3,0 C -1,0 C 29,0 km/h (5 Bft)
28.01.2016 08:39 5,8 C 82 % 1014,8 hPa 0,0 l/m 15,9 km/h (3 Bft) S-SW 213 0 min 11 W/m 3,0 C -0,4 C 24,1 km/h (4 Bft)
28.01.2016 08:42 5,8 C 82 % 1014,8 hPa 0,0 l/m 16,8 km/h (3 Bft) W 281 0 min 11 W/m 3,0 C -0,8 C 25,7 km/h (4 Bft)
28.01.2016 08:45 5,8 C 82 % 1014,9 hPa 0,0 l/m 12,6 km/h (3 Bft) W 262 0 min 11 W/m 3,0 C 1,3 C 20,9 km/h (4 Bft)
28.01.2016 08:48 5,8 C 83 % 1015,0 hPa 0,0 l/m 15,6 km/h (3 Bft) NW 311 3 min 12 W/m 3,1 C -0,2 C 25,7 km/h (4 Bft)
28.01.2016 08:51 5,8 C 83 % 1015,1 hPa 0,0 l/m 17,5 km/h (3 Bft) W-SW 238 0 min 14 W/m 3,1 C -1,1 C 29,0 km/h (5 Bft)
28.01.2016 08:54 5,8 C 83 % 1015,1 hPa 0,0 l/m 14,2 km/h (3 Bft) SW 231 0 min 14 W/m 3,1 C 0,5 C 24,1 km/h (4 Bft)
28.01.2016 08:57 5,8 C 84 % 1015,2 hPa 0,0 l/m 14,2 km/h (3 Bft) W-SW 238 0 min 16 W/m 3,3 C 0,5 C 25,7 km/h (4 Bft)
28.01.2016 09:00 5,8 C 84 % 1015,3 hPa 0,0 l/m 16,1 km/h (3 Bft) SW 236 0 min 16 W/m 3,3 C -0,5 C 25,7 km/h (4 Bft)
28.01.2016 09:03 5,8 C 84 % 1015,4 hPa 0,0 l/m 15,0 km/h (3 Bft) SW 229 0 min 18 W/m 3,3 C 0,0 C 25,7 km/h (4 Bft)
28.01.2016 09:06 5,8 C 84 % 1015,4 hPa 0,0 l/m 14,9 km/h (3 Bft) W-NW 285 0 min 19 W/m 3,3 C 0,1 C 29,0 km/h (5 Bft)
28.01.2016 09:09 5,8 C 83 % 1015,4 hPa 0,0 l/m 14,2 km/h (3 Bft) SW 228 0 min 19 W/m 3,1 C 0,5 C 27,4 km/h (5 Bft)
28.01.2016 09:12 5,8 C 83 % 1015,5 hPa 0,0 l/m 17,9 km/h (3 Bft) W 275 0 min 21 W/m 3,1 C -1,3 C 30,6 km/h (5 Bft)
28.01.2016 09:15 5,8 C 83 % 1015,6 hPa 0,0 l/m 15,9 km/h (3 Bft) W-SW 240 0 min 21 W/m 3,1 C -0,4 C 25,7 km/h (4 Bft)
28.01.2016 09:18 5,8 C 83 % 1015,6 hPa 0,0 l/m 17,8 km/h (3 Bft) W-SW 246 0 min 23 W/m 3,1 C -1,2 C 27,4 km/h (5 Bft)
28.01.2016 09:21 5,8 C 83 % 1015,7 hPa 0,0 l/m 15,8 km/h (3 Bft) W-SW 257 0 min 25 W/m 3,1 C -0,3 C 27,4 km/h (5 Bft)
28.01.2016 09:24 5,8 C 84 % 1015,7 hPa 0,0 l/m 19,6 km/h (3 Bft) W-SW 251 0 min 25 W/m 3,3 C -2,0 C 32,2 km/h (5 Bft)
28.01.2016 09:27 5,8 C 84 % 1015,8 hPa 0,0 l/m 15,5 km/h (3 Bft) W 266 0 min 25 W/m 3,3 C -0,2 C 25,7 km/h (4 Bft)
28.01.2016 09:30 5,8 C 84 % 1015,8 hPa 0,0 l/m 16,4 km/h (3 Bft) W 261 0 min 25 W/m 3,3 C -0,6 C 27,4 km/h (5 Bft)
28.01.2016 09:33 5,8 C 84 % 1015,7 hPa 0,0 l/m 19,5 km/h (3 Bft) W-SW 250 0 min 25 W/m 3,3 C -1,9 C 30,6 km/h (5 Bft)
28.01.2016 09:36 5,8 C 83 % 1015,8 hPa 0,0 l/m 16,9 km/h (3 Bft) W-SW 244 0 min 26 W/m 3,1 C -0,9 C 29,0 km/h (5 Bft)
28.01.2016 09:39 5,8 C 83 % 1015,8 hPa 0,0 l/m 17,7 km/h (3 Bft) W 281 0 min 28 W/m 3,1 C -1,2 C 27,4 km/h (5 Bft)
28.01.2016 09:42 5,8 C 83 % 1015,8 hPa 0,0 l/m 14,0 km/h (3 Bft) W 277 0 min 28 W/m 3,1 C 0,6 C 22,5 km/h (4 Bft)
28.01.2016 09:45 5,9 C 83 % 1015,9 hPa 0,0 l/m 16,4 km/h (3 Bft) SW 224 0 min 30 W/m 3,2 C -0,5 C 32,2 km/h (5 Bft)
28.01.2016 09:48 5,9 C 84 % 1016,0 hPa 0,0 l/m 13,8 km/h (3 Bft) W 281 0 min 32 W/m 3,4 C 0,8 C 24,1 km/h (4 Bft)
28.01.2016 09:51 5,9 C 84 % 1016,1 hPa 0,0 l/m 14,3 km/h (3 Bft) SW 235 0 min 33 W/m 3,4 C 0,5 C 22,5 km/h (4 Bft)
28.01.2016 09:54 5,9 C 84 % 1016,2 hPa 0,0 l/m 14,2 km/h (3 Bft) W 263 0 min 33 W/m 3,4 C 0,6 C 22,5 km/h (4 Bft)
28.01.2016 09:57 5,8 C 85 % 1016,2 hPa 0,0 l/m 12,8 km/h (3 Bft) SW 236 0 min 33 W/m 3,5 C 1,2 C 22,5 km/h (4 Bft)
28.01.2016 10:00 5,8 C 85 % 1016,3 hPa 0,0 l/m 14,8 km/h (3 Bft) SW 214 0 min 33 W/m 3,5 C 0,1 C 22,5 km/h (4 Bft)
28.01.2016 10:03 5,8 C 85 % 1016,4 hPa 0,0 l/m 12,1 km/h (2 Bft) W 277 0 min 33 W/m 3,5 C 1,6 C 22,5 km/h (4 Bft)
28.01.2016 10:06 5,8 C 85 % 1016,5 hPa 0,0 l/m 12,9 km/h (3 Bft) SW 234 0 min 35 W/m 3,5 C 1,2 C 25,7 km/h (4 Bft)
28.01.2016 10:09 5,7 C 86 % 1016,6 hPa 0,0 l/m 17,4 km/h (3 Bft) W-NW 286 0 min 33 W/m 3,5 C -1,2 C 25,7 km/h (4 Bft)
28.01.2016 10:12 5,7 C 86 % 1016,6 hPa 0,0 l/m 17,2 km/h (3 Bft) S-SW 213 0 min 33 W/m 3,5 C -1,1 C 25,7 km/h (4 Bft)
28.01.2016 10:15 5,7 C 86 % 1016,7 hPa 0,0 l/m 15,4 km/h (3 Bft) W 267 0 min 33 W/m 3,5 C -0,3 C 27,4 km/h (5 Bft)
28.01.2016 10:18 5,7 C 86 % 1016,7 hPa 0,0 l/m 15,5 km/h (3 Bft) W 261 0 min 35 W/m 3,5 C -0,3 C 24,1 km/h (4 Bft)
28.01.2016 10:21 5,8 C 86 % 1016,8 hPa 0,0 l/m 14,3 km/h (3 Bft) NW 306 0 min 39 W/m 3,6 C 0,4 C 20,9 km/h (4 Bft)
28.01.2016 10:24 5,8 C 86 % 1016,8 hPa 0,0 l/m 16,7 km/h (3 Bft) W-SW 250 0 min 40 W/m 3,6 C -0,8 C 25,7 km/h (4 Bft)
28.01.2016 10:27 5,8 C 85 % 1016,9 hPa 0,0 l/m 16,4 km/h (3 Bft) W 266 0 min 40 W/m 3,5 C -0,6 C 27,4 km/h (5 Bft)
28.01.2016 10:30 5,9 C 85 % 1016,9 hPa 0,0 l/m 12,4 km/h (2 Bft) SW 232 0 min 40 W/m 3,6 C 1,6 C 19,3 km/h (3 Bft)
28.01.2016 10:33 5,9 C 85 % 1017,0 hPa 0,0 l/m 13,7 km/h (3 Bft) W-SW 253 0 min 40 W/m 3,6 C 0,8 C 25,7 km/h (4 Bft)
28.01.2016 10:36 5,9 C 85 % 1017,1 hPa 0,0 l/m 13,8 km/h (3 Bft) W 277 0 min 39 W/m 3,6 C 0,8 C 24,1 km/h (4 Bft)
28.01.2016 10:39 6,0 C 85 % 1017,2 hPa 0,0 l/m 14,9 km/h (3 Bft) W-SW 250 0 min 40 W/m 3,7 C 0,3 C 25,7 km/h (4 Bft)
28.01.2016 10:42 5,9 C 85 % 1017,2 hPa 0,0 l/m 14,2 km/h (3 Bft) S 190 0 min 42 W/m 3,6 C 0,6 C 25,7 km/h (4 Bft)
28.01.2016 10:45 5,9 C 85 % 1017,4 hPa 0,0 l/m 17,7 km/h (3 Bft) SW 229 0 min 46 W/m 3,6 C -1,1 C 27,4 km/h (5 Bft)
28.01.2016 10:48 5,9 C 85 % 1017,4 hPa 0,0 l/m 14,7 km/h (3 Bft) W-SW 248 0 min 47 W/m 3,6 C 0,3 C 24,1 km/h (4 Bft)
28.01.2016 10:51 6,0 C 85 % 1017,5 hPa 0,0 l/m 13,6 km/h (3 Bft) W-SW 258 0 min 70 W/m 3,7 C 1,0 C 20,9 km/h (4 Bft)
28.01.2016 10:54 6,1 C 85 % 1017,5 hPa 0,0 l/m 15,7 km/h (3 Bft) W 259 0 min 51 W/m 3,8 C 0,1 C 24,1 km/h (4 Bft)
28.01.2016 10:57 6,2 C 85 % 1017,6 hPa 0,0 l/m 14,1 km/h (3 Bft) W 279 0 min 44 W/m 3,9 C 1,0 C 25,7 km/h (4 Bft)
28.01.2016 11:00 6,2 C 84 % 1017,7 hPa 0,0 l/m 16,5 km/h (3 Bft) SW 235 0 min 44 W/m 3,7 C -0,2 C 27,4 km/h (5 Bft)
28.01.2016 11:03 6,3 C 83 % 1017,8 hPa 0,0 l/m 20,2 km/h (4 Bft) SW 229 0 min 53 W/m 3,6 C -1,6 C 30,6 km/h (5 Bft)
28.01.2016 11:06 6,3 C 84 % 1017,9 hPa 0,0 l/m 15,8 km/h (3 Bft) SW 216 0 min 70 W/m 3,8 C 0,3 C 25,7 km/h (4 Bft)
28.01.2016 11:09 6,4 C 84 % 1018,0 hPa 0,0 l/m 16,3 km/h (3 Bft) SW 223 0 min 58 W/m 3,9 C 0,2 C 32,2 km/h (5 Bft)
28.01.2016 11:12 6,4 C 84 % 1018,1 hPa 0,0 l/m 16,5 km/h (3 Bft) W-SW 250 0 min 54 W/m 3,9 C 0,1 C 30,6 km/h (5 Bft)
28.01.2016 11:15 6,3 C 84 % 1018,2 hPa 0,0 l/m 15,8 km/h (3 Bft) W-SW 254 0 min 72 W/m 3,8 C 0,3 C 27,4 km/h (5 Bft)
28.01.2016 11:18 6,3 C 85 % 1018,3 hPa 0,0 l/m 12,2 km/h (2 Bft) SW 228 0 min 67 W/m 4,0 C 2,1 C 22,5 km/h (4 Bft)
28.01.2016 11:21 6,3 C 85 % 1018,4 hPa 0,0 l/m 16,4 km/h (3 Bft) W 278 0 min 56 W/m 4,0 C -0,0 C 32,2 km/h (5 Bft)
28.01.2016 11:24 6,3 C 85 % 1018,3 hPa 0,0 l/m 20,1 km/h (4 Bft) SW 227 0 min 56 W/m 4,0 C -1,5 C 30,6 km/h (5 Bft)
28.01.2016 11:27 6,4 C 84 % 1018,4 hPa 0,0 l/m 17,7 km/h (3 Bft) W-SW 254 0 min 62 W/m 3,9 C -0,4 C 27,4 km/h (5 Bft)
28.01.2016 11:30 6,6 C 83 % 1018,4 hPa 0,0 l/m 19,1 km/h (3 Bft) SW 229 0 min 44 W/m 3,9 C -0,8 C 29,0 km/h (5 Bft)
28.01.2016 11:33 6,4 C 83 % 1018,5 hPa 0,0 l/m 18,1 km/h (3 Bft) W-SW 242 0 min 77 W/m 3,7 C -0,6 C 29,0 km/h (5 Bft)
28.01.2016 11:36 6,4 C 83 % 1018,5 hPa 0,0 l/m 16,3 km/h (3 Bft) W 269 3 min 216 W/m 3,7 C 0,2 C 25,7 km/h (4 Bft)
28.01.2016 11:39 6,5 C 83 % 1018,5 hPa 0,0 l/m 17,5 km/h (3 Bft) SW 224 3 min 169 W/m 3,8 C -0,2 C 29,0 km/h (5 Bft)
28.01.2016 11:42 6,6 C 83 % 1018,6 hPa 0,0 l/m 17,1 km/h (3 Bft) W-NW 284 3 min 156 W/m 3,9 C 0,1 C 25,7 km/h (4 Bft)
28.01.2016 11:45 6,7 C 83 % 1018,7 hPa 0,0 l/m 16,9 km/h (3 Bft) W-SW 246 3 min 156 W/m 4,0 C 0,3 C 25,7 km/h (4 Bft)
28.01.2016 11:48 6,8 C 82 % 1018,8 hPa 0,0 l/m 17,0 km/h (3 Bft) SW 233 0 min 40 W/m 3,9 C 0,3 C 35,4 km/h (5 Bft)
28.01.2016 11:51 6,7 C 82 % 1018,8 hPa 0,0 l/m 17,0 km/h (3 Bft) W-NW 298 0 min 35 W/m 3,8 C 0,2 C 29,0 km/h (5 Bft)
28.01.2016 11:54 6,4 C 83 % 1018,9 hPa 0,0 l/m 16,5 km/h (3 Bft) SW 224 0 min 63 W/m 3,7 C 0,1 C 25,7 km/h (4 Bft)
28.01.2016 11:57 6,4 C 83 % 1018,9 hPa 0,0 l/m 17,5 km/h (3 Bft) W-SW 251 0 min 118 W/m 3,7 C -0,4 C 29,0 km/h (5 Bft)
28.01.2016 12:00 6,6 C 83 % 1019,0 hPa 0,0 l/m 14,9 km/h (3 Bft) SW 228 0 min 128 W/m 3,9 C 1,1 C 27,4 km/h (5 Bft)
28.01.2016 12:03 6,6 C 83 % 1019,0 hPa 0,0 l/m 12,9 km/h (3 Bft) SW 225 0 min 83 W/m 3,9 C 2,1 C 19,3 km/h (3 Bft)
28.01.2016 12:06 6,7 C 83 % 1019,0 hPa 0,0 l/m 12,3 km/h (2 Bft) W-SW 251 3 min 241 W/m 4,0 C 2,5 C 27,4 km/h (5 Bft)
28.01.2016 12:09 6,7 C 83 % 1018,9 hPa 0,0 l/m 14,4 km/h (3 Bft) W-SW 238 3 min 158 W/m 4,0 C 1,4 C 22,5 km/h (4 Bft)
28.01.2016 12:12 6,7 C 83 % 1019,0 hPa 0,0 l/m 14,3 km/h (3 Bft) W 271 3 min 271 W/m 4,0 C 1,5 C 27,4 km/h (5 Bft)
28.01.2016 12:15 6,8 C 83 % 1019,0 hPa 0,0 l/m 11,7 km/h (2 Bft) W-SW 256 0 min 128 W/m 4,1 C 3,0 C 24,1 km/h (4 Bft)
28.01.2016 12:18 6,8 C 84 % 1019,0 hPa 0,0 l/m 15,4 km/h (3 Bft) S-SW 211 3 min 179 W/m 4,3 C 1,1 C 25,7 km/h (4 Bft)
28.01.2016 12:21 6,9 C 84 % 1019,1 hPa 0,0 l/m 11,0 km/h (2 Bft) W-SW 244 0 min 120 W/m 4,4 C 3,5 C 19,3 km/h (3 Bft)
28.01.2016 12:24 6,8 C 84 % 1019,1 hPa 0,0 l/m 16,1 km/h (3 Bft) S-SW 207 0 min 98 W/m 4,3 C 0,7 C 35,4 km/h (5 Bft)
28.01.2016 12:27 6,7 C 84 % 1019,1 hPa 0,0 l/m 14,7 km/h (3 Bft) SW 226 0 min 67 W/m 4,2 C 1,3 C 24,1 km/h (4 Bft)
28.01.2016 12:30 6,6 C 85 % 1019,1 hPa 0,0 l/m 13,8 km/h (3 Bft) SW 222 0 min 88 W/m 4,3 C 1,6 C 22,5 km/h (4 Bft)
28.01.2016 12:33 6,5 C 85 % 1019,1 hPa 0,0 l/m 16,3 km/h (3 Bft) W-SW 250 0 min 116 W/m 4,2 C 0,3 C 29,0 km/h (5 Bft)
28.01.2016 12:36 6,6 C 84 % 1019,1 hPa 0,0 l/m 19,9 km/h (4 Bft) S-SW 203 3 min 218 W/m 4,1 C -1,1 C 33,8 km/h (5 Bft)
28.01.2016 12:39 6,6 C 83 % 1019,1 hPa 0,0 l/m 13,7 km/h (3 Bft) W-SW 255 0 min 63 W/m 3,9 C 1,7 C 29,0 km/h (5 Bft)
28.01.2016 12:42 6,6 C 82 % 1019,2 hPa 0,0 l/m 17,6 km/h (3 Bft) W-SW 240 0 min 118 W/m 3,8 C -0,2 C 29,0 km/h (5 Bft)
28.01.2016 12:45 6,6 C 83 % 1019,1 hPa 0,0 l/m 15,1 km/h (3 Bft) W-SW 245 3 min 223 W/m 3,9 C 1,0 C 24,1 km/h (4 Bft)
28.01.2016 12:48 6,7 C 83 % 1019,1 hPa 0,0 l/m 15,5 km/h (3 Bft) S 171 3 min 260 W/m 4,0 C 0,9 C 27,4 km/h (5 Bft)
28.01.2016 12:51 6,8 C 83 % 1019,2 hPa 0,0 l/m 14,2 km/h (3 Bft) W 262 3 min 229 W/m 4,1 C 1,6 C 22,5 km/h (4 Bft)
28.01.2016 12:54 6,9 C 84 % 1019,2 hPa 0,0 l/m 12,9 km/h (3 Bft) W-SW 254 3 min 225 W/m 4,4 C 2,4 C 32,2 km/h (5 Bft)
28.01.2016 12:57 7,1 C 83 % 1019,3 hPa 0,0 l/m 15,2 km/h (3 Bft) W-SW 249 3 min 225 W/m 4,4 C 1,5 C 24,1 km/h (4 Bft)
28.01.2016 13:00 7,1 C 84 % 1019,3 hPa 0,0 l/m 12,4 km/h (2 Bft) W 265 3 min 229 W/m 4,6 C 3,0 C 22,5 km/h (4 Bft)
28.01.2016 13:03 7,1 C 83 % 1019,2 hPa 0,0 l/m 12,3 km/h (2 Bft) W-SW 240 3 min 190 W/m 4,4 C 3,0 C 19,3 km/h (3 Bft)
28.01.2016 13:06 7,0 C 84 % 1019,2 hPa 0,0 l/m 14,9 km/h (3 Bft) W-NW 288 3 min 202 W/m 4,5 C 1,5 C 25,7 km/h (4 Bft)
28.01.2016 13:09 6,9 C 84 % 1019,3 hPa 0,0 l/m 14,7 km/h (3 Bft) W-SW 248 3 min 214 W/m 4,4 C 1,5 C 24,1 km/h (4 Bft)
28.01.2016 13:12 6,9 C 84 % 1019,3 hPa 0,0 l/m 14,6 km/h (3 Bft) S-SW 210 3 min 211 W/m 4,4 C 1,6 C 30,6 km/h (5 Bft)
28.01.2016 13:15 6,9 C 84 % 1019,3 hPa 0,0 l/m 13,9 km/h (3 Bft) W-SW 241 3 min 204 W/m 4,4 C 1,9 C 25,7 km/h (4 Bft)
28.01.2016 13:18 7,1 C 84 % 1019,3 hPa 0,0 l/m 13,1 km/h (3 Bft) W-SW 246 3 min 204 W/m 4,6 C 2,6 C 20,9 km/h (4 Bft)
28.01.2016 13:21 7,1 C 84 % 1019,3 hPa 0,0 l/m 16,6 km/h (3 Bft) SW 233 3 min 214 W/m 4,6 C 0,9 C 33,8 km/h (5 Bft)
28.01.2016 13:24 7,0 C 84 % 1019,4 hPa 0,0 l/m 12,3 km/h (2 Bft) W-NW 282 3 min 214 W/m 4,5 C 2,9 C 22,5 km/h (4 Bft)
28.01.2016 13:27 7,0 C 85 % 1019,4 hPa 0,0 l/m 13,3 km/h (3 Bft) S-SW 197 3 min 216 W/m 4,7 C 2,3 C 24,1 km/h (4 Bft)
28.01.2016 13:30 7,1 C 84 % 1019,5 hPa 0,0 l/m 13,8 km/h (3 Bft) S-SW 209 3 min 214 W/m 4,6 C 2,2 C 22,5 km/h (4 Bft)
28.01.2016 13:33 7,1 C 84 % 1019,4 hPa 0,0 l/m 11,7 km/h (2 Bft) W-SW 252 3 min 214 W/m 4,6 C 3,3 C 19,3 km/h (3 Bft)
28.01.2016 13:36 7,1 C 84 % 1019,4 hPa 0,0 l/m 15,0 km/h (3 Bft) W-SW 246 3 min 213 W/m 4,6 C 1,6 C 25,7 km/h (4 Bft)
28.01.2016 13:39 7,1 C 84 % 1019,4 hPa 0,0 l/m 15,7 km/h (3 Bft) W 268 3 min 207 W/m 4,6 C 1,3 C 29,0 km/h (5 Bft)
28.01.2016 13:42 7,2 C 84 % 1019,4 hPa 0,0 l/m 15,8 km/h (3 Bft) W 263 3 min 204 W/m 4,7 C 1,4 C 29,0 km/h (5 Bft)
28.01.2016 13:45 7,2 C 84 % 1019,4 hPa 0,0 l/m 18,3 km/h (3 Bft) W-NW 298 3 min 185 W/m 4,7 C 0,3 C 32,2 km/h (5 Bft)
28.01.2016 13:48 7,1 C 84 % 1019,4 hPa 0,0 l/m 15,2 km/h (3 Bft) W 281 3 min 239 W/m 4,6 C 1,5 C 27,4 km/h (5 Bft)
28.01.2016 13:51 6,9 C 84 % 1019,4 hPa 0,0 l/m 15,7 km/h (3 Bft) SW 229 0 min 69 W/m 4,4 C 1,1 C 25,7 km/h (4 Bft)
28.01.2016 13:54 6,8 C 85 % 1019,4 hPa 0,0 l/m 13,4 km/h (3 Bft) SW 220 0 min 77 W/m 4,5 C 2,1 C 20,9 km/h (4 Bft)
28.01.2016 13:57 6,7 C 85 % 1019,4 hPa 0,0 l/m 16,6 km/h (3 Bft) W-NW 298 3 min 199 W/m 4,4 C 0,4 C 24,1 km/h (4 Bft)
28.01.2016 14:00 6,8 C 85 % 1019,4 hPa 0,0 l/m 18,1 km/h (3 Bft) SW 227 3 min 181 W/m 4,5 C -0,1 C 33,8 km/h (5 Bft)
28.01.2016 14:03 6,8 C 85 % 1019,4 hPa 0,0 l/m 16,1 km/h (3 Bft) W-SW 238 3 min 183 W/m 4,5 C 0,7 C 30,6 km/h (5 Bft)
28.01.2016 14:06 6,9 C 84 % 1019,3 hPa 0,0 l/m 15,2 km/h (3 Bft) W-SW 254 3 min 190 W/m 4,4 C 1,3 C 30,6 km/h (5 Bft)
28.01.2016 14:09 6,9 C 84 % 1019,3 hPa 0,0 l/m 13,5 km/h (3 Bft) W-SW 238 3 min 190 W/m 4,4 C 2,1 C 27,4 km/h (5 Bft)
28.01.2016 14:12 6,9 C 84 % 1019,4 hPa 0,0 l/m 13,9 km/h (3 Bft) W 271 3 min 186 W/m 4,4 C 1,9 C 24,1 km/h (4 Bft)
28.01.2016 14:15 6,9 C 84 % 1019,3 hPa 0,0 l/m 15,6 km/h (3 Bft) W-SW 251 3 min 186 W/m 4,4 C 1,1 C 24,1 km/h (4 Bft)
28.01.2016 14:18 6,9 C 84 % 1019,4 hPa 0,0 l/m 17,6 km/h (3 Bft) W 271 3 min 179 W/m 4,4 C 0,2 C 29,0 km/h (5 Bft)
28.01.2016 14:21 6,9 C 84 % 1019,4 hPa 0,0 l/m 13,6 km/h (3 Bft) W-SW 242 3 min 179 W/m 4,4 C 2,1 C 24,1 km/h (4 Bft)
28.01.2016 14:24 7,0 C 84 % 1019,5 hPa 0,0 l/m 13,7 km/h (3 Bft) SW 231 3 min 178 W/m 4,5 C 2,1 C 27,4 km/h (5 Bft)
28.01.2016 14:27 7,0 C 83 % 1019,7 hPa 0,0 l/m 15,8 km/h (3 Bft) SW 234 3 min 172 W/m 4,3 C 1,1 C 30,6 km/h (5 Bft)
28.01.2016 14:30 7,0 C 83 % 1019,7 hPa 0,0 l/m 14,3 km/h (3 Bft) S-SW 207 3 min 169 W/m 4,3 C 1,8 C 22,5 km/h (4 Bft)
28.01.2016 14:33 6,9 C 83 % 1019,7 hPa 0,0 l/m 14,8 km/h (3 Bft) SW 225 3 min 160 W/m 4,2 C 1,5 C 25,7 km/h (4 Bft)
28.01.2016 14:36 6,9 C 83 % 1019,7 hPa 0,0 l/m 18,1 km/h (3 Bft) W 269 3 min 156 W/m 4,2 C 0,0 C 27,4 km/h (5 Bft)
28.01.2016 14:39 6,8 C 84 % 1019,6 hPa 0,0 l/m 11,4 km/h (2 Bft) W-SW 248 3 min 120 W/m 4,3 C 3,2 C 20,9 km/h (4 Bft)
28.01.2016 14:42 6,8 C 84 % 1019,7 hPa 0,0 l/m 13,8 km/h (3 Bft) SW 233 3 min 121 W/m 4,3 C 1,9 C 22,5 km/h (4 Bft)
28.01.2016 14:45 6,8 C 84 % 1019,7 hPa 0,0 l/m 12,8 km/h (3 Bft) S 169 3 min 109 W/m 4,3 C 2,4 C 19,3 km/h (3 Bft)
28.01.2016 14:48 6,7 C 84 % 1019,7 hPa 0,0 l/m 15,5 km/h (3 Bft) SW 225 3 min 123 W/m 4,2 C 0,9 C 29,0 km/h (5 Bft)
28.01.2016 14:51 6,7 C 84 % 1019,7 hPa 0,0 l/m 15,7 km/h (3 Bft) S-SW 206 0 min 86 W/m 4,2 C 0,8 C 24,1 km/h (4 Bft)
28.01.2016 14:54 6,7 C 84 % 1019,7 hPa 0,0 l/m 17,9 km/h (3 Bft) W-SW 240 0 min 86 W/m 4,2 C -0,2 C 32,2 km/h (5 Bft)
28.01.2016 14:57 6,6 C 84 % 1019,8 hPa 0,0 l/m 15,6 km/h (3 Bft) SW 214 0 min 84 W/m 4,1 C 0,7 C 27,4 km/h (5 Bft)
28.01.2016 15:00 6,6 C 84 % 1019,8 hPa 0,0 l/m 15,1 km/h (3 Bft) W-SW 251 0 min 76 W/m 4,1 C 1,0 C 29,0 km/h (5 Bft)
28.01.2016 15:03 6,6 C 84 % 1019,7 hPa 0,0 l/m 17,6 km/h (3 Bft) SW 221 0 min 83 W/m 4,1 C -0,2 C 27,4 km/h (5 Bft)
28.01.2016 15:06 6,6 C 84 % 1019,7 hPa 0,0 l/m 15,1 km/h (3 Bft) SW 221 0 min 67 W/m 4,1 C 1,0 C 25,7 km/h (4 Bft)
28.01.2016 15:09 6,6 C 84 % 1019,7 hPa 0,0 l/m 16,7 km/h (3 Bft) W-SW 254 0 min 77 W/m 4,1 C 0,2 C 27,4 km/h (5 Bft)
28.01.2016 15:12 6,6 C 84 % 1019,8 hPa 0,0 l/m 17,7 km/h (3 Bft) SW 226 0 min 65 W/m 4,1 C -0,2 C 35,4 km/h (5 Bft)
28.01.2016 15:15 6,5 C 84 % 1019,8 hPa 0,0 l/m 17,3 km/h (3 Bft) S-SW 211 0 min 74 W/m 4,0 C -0,2 C 30,6 km/h (5 Bft)
28.01.2016 15:18 6,5 C 84 % 1019,9 hPa 0,0 l/m 15,3 km/h (3 Bft) W-SW 252 0 min 79 W/m 4,0 C 0,7 C 25,7 km/h (4 Bft)
28.01.2016 15:21 6,4 C 84 % 1019,9 hPa 0,0 l/m 15,1 km/h (3 Bft) S-SW 210 0 min 63 W/m 3,9 C 0,7 C 22,5 km/h (4 Bft)
28.01.2016 15:24 6,4 C 85 % 1019,9 hPa 0,0 l/m 12,9 km/h (3 Bft) SW 229 0 min 54 W/m 4,1 C 1,9 C 22,5 km/h (4 Bft)
28.01.2016 15:27 6,4 C 85 % 1019,9 hPa 0,0 l/m 14,7 km/h (3 Bft) S-SW 205 0 min 53 W/m 4,1 C 0,9 C 22,5 km/h (4 Bft)
28.01.2016 15:30 6,4 C 85 % 1019,9 hPa 0,0 l/m 13,2 km/h (3 Bft) SW 214 0 min 56 W/m 4,1 C 1,7 C 19,3 km/h (3 Bft)
28.01.2016 15:33 6,3 C 85 % 1019,8 hPa 0,0 l/m 14,3 km/h (3 Bft) W-SW 250 0 min 49 W/m 4,0 C 1,0 C 24,1 km/h (4 Bft)
28.01.2016 15:36 6,3 C 86 % 1019,8 hPa 0,0 l/m 12,2 km/h (2 Bft) SW 221 0 min 49 W/m 4,1 C 2,1 C 22,5 km/h (4 Bft)
28.01.2016 15:39 6,3 C 86 % 1019,8 hPa 0,0 l/m 15,0 km/h (3 Bft) S-SW 210 0 min 47 W/m 4,1 C 0,7 C 27,4 km/h (5 Bft)
28.01.2016 15:42 6,3 C 86 % 1019,8 hPa 0,0 l/m 16,1 km/h (3 Bft) SW 234 0 min 42 W/m 4,1 C 0,1 C 24,1 km/h (4 Bft)
28.01.2016 15:45 6,2 C 86 % 1019,9 hPa 0,0 l/m 18,7 km/h (3 Bft) S-SW 208 0 min 37 W/m 4,0 C -1,1 C 27,4 km/h (5 Bft)
28.01.2016 15:48 6,3 C 86 % 1019,9 hPa 0,0 l/m 19,2 km/h (3 Bft) SW 221 0 min 33 W/m 4,1 C -1,2 C 32,2 km/h (5 Bft)
28.01.2016 15:51 6,3 C 86 % 1019,9 hPa 0,0 l/m 17,9 km/h (3 Bft) S-SW 212 0 min 25 W/m 4,1 C -0,7 C 25,7 km/h (4 Bft)
28.01.2016 15:54 6,2 C 86 % 1019,9 hPa 0,0 l/m 17,6 km/h (3 Bft) SW 231 0 min 39 W/m 4,0 C -0,7 C 29,0 km/h (5 Bft)
28.01.2016 15:57 6,2 C 86 % 1020,0 hPa 0,0 l/m 17,4 km/h (3 Bft) SW 230 0 min 44 W/m 4,0 C -0,6 C 25,7 km/h (4 Bft)
28.01.2016 16:00 6,2 C 86 % 1020,0 hPa 0,0 l/m 17,1 km/h (3 Bft) W 259 3 min 53 W/m 4,0 C -0,4 C 29,0 km/h (5 Bft)
28.01.2016 16:03 6,2 C 86 % 1020,0 hPa 0,0 l/m 17,7 km/h (3 Bft) W-SW 237 0 min 33 W/m 4,0 C -0,7 C 29,0 km/h (5 Bft)
28.01.2016 16:06 6,2 C 86 % 1020,0 hPa 0,0 l/m 17,0 km/h (3 Bft) S-SW 195 0 min 28 W/m 4,0 C -0,4 C 30,6 km/h (5 Bft)
28.01.2016 16:09 6,2 C 86 % 1020,1 hPa 0,0 l/m 18,6 km/h (3 Bft) W-SW 245 0 min 26 W/m 4,0 C -1,1 C 27,4 km/h (5 Bft)
28.01.2016 16:12 6,2 C 86 % 1020,2 hPa 0,0 l/m 16,9 km/h (3 Bft) W-SW 256 0 min 25 W/m 4,0 C -0,4 C 25,7 km/h (4 Bft)
28.01.2016 16:15 6,2 C 86 % 1020,2 hPa 0,0 l/m 18,1 km/h (3 Bft) SW 236 0 min 23 W/m 4,0 C -0,9 C 27,4 km/h (5 Bft)
28.01.2016 16:18 6,2 C 86 % 1020,2 hPa 0,0 l/m 14,7 km/h (3 Bft) W-SW 255 0 min 21 W/m 4,0 C 0,7 C 27,4 km/h (5 Bft)
28.01.2016 16:21 6,1 C 86 % 1020,2 hPa 0,0 l/m 16,5 km/h (3 Bft) W-SW 246 0 min 21 W/m 3,9 C -0,3 C 25,7 km/h (4 Bft)
28.01.2016 16:24 6,1 C 86 % 1020,3 hPa 0,0 l/m 17,3 km/h (3 Bft) SW 221 0 min 19 W/m 3,9 C -0,7 C 27,4 km/h (5 Bft)
28.01.2016 16:27 6,1 C 86 % 1020,4 hPa 0,0 l/m 17,8 km/h (3 Bft) SW 236 3 min 18 W/m 3,9 C -0,9 C 27,4 km/h (5 Bft)
28.01.2016 16:30 6,0 C 86 % 1020,4 hPa 0,0 l/m 15,2 km/h (3 Bft) W-SW 254 3 min 16 W/m 3,8 C 0,2 C 25,7 km/h (4 Bft)
28.01.2016 16:33 5,9 C 86 % 1020,4 hPa 0,0 l/m 16,3 km/h (3 Bft) W-SW 253 3 min 14 W/m 3,7 C -0,5 C 25,7 km/h (4 Bft)
28.01.2016 16:36 5,9 C 86 % 1020,3 hPa 0,0 l/m 18,1 km/h (3 Bft) SW 223 0 min 12 W/m 3,7 C -1,2 C 27,4 km/h (5 Bft)
28.01.2016 16:39 5,9 C 86 % 1020,5 hPa 0,0 l/m 14,7 km/h (3 Bft) SW 227 0 min 11 W/m 3,7 C 0,3 C 22,5 km/h (4 Bft)
28.01.2016 16:42 5,9 C 86 % 1020,5 hPa 0,0 l/m 14,8 km/h (3 Bft) W-SW 258 0 min 11 W/m 3,7 C 0,3 C 20,9 km/h (4 Bft)
28.01.2016 16:45 5,8 C 86 % 1020,4 hPa 0,0 l/m 13,8 km/h (3 Bft) SW 221 0 min 9 W/m 3,6 C 0,7 C 24,1 km/h (4 Bft)
28.01.2016 16:48 5,8 C 86 % 1020,4 hPa 0,0 l/m 13,4 km/h (3 Bft) SW 229 0 min 7 W/m 3,6 C 0,9 C 19,3 km/h (3 Bft)
28.01.2016 16:51 5,8 C 86 % 1020,4 hPa 0,0 l/m 13,4 km/h (3 Bft) SW 226 0 min 7 W/m 3,6 C 0,9 C 22,5 km/h (4 Bft)
28.01.2016 16:54 5,8 C 86 % 1020,5 hPa 0,0 l/m 13,9 km/h (3 Bft) S-SW 198 0 min 5 W/m 3,6 C 0,6 C 19,3 km/h (3 Bft)
28.01.2016 16:57 5,7 C 86 % 1020,4 hPa 0,0 l/m 13,7 km/h (3 Bft) W-SW 238 0 min 5 W/m 3,5 C 0,6 C 19,3 km/h (3 Bft)
28.01.2016 17:00 5,7 C 86 % 1020,4 hPa 0,0 l/m 13,3 km/h (3 Bft) W-SW 237 0 min 0 W/m 3,5 C 0,8 C 24,1 km/h (4 Bft)
28.01.2016 17:03 5,7 C 86 % 1020,4 hPa 0,0 l/m 16,9 km/h (3 Bft) SW 217 0 min 0 W/m 3,5 C -1,0 C 22,5 km/h (4 Bft)
28.01.2016 17:06 5,7 C 86 % 1020,4 hPa 0,0 l/m 16,2 km/h (3 Bft) SW 227 0 min 0 W/m 3,5 C -0,7 C 25,7 km/h (4 Bft)
28.01.2016 17:09 5,8 C 86 % 1020,4 hPa 0,0 l/m 17,4 km/h (3 Bft) W-SW 238 0 min 0 W/m 3,6 C -1,1 C 27,4 km/h (5 Bft)
28.01.2016 17:12 5,8 C 85 % 1020,5 hPa 0,0 l/m 19,0 km/h (3 Bft) SW 231 0 min 0 W/m 3,5 C -1,7 C 25,7 km/h (4 Bft)
28.01.2016 17:15 5,8 C 85 % 1020,5 hPa 0,0 l/m 16,4 km/h (3 Bft) SW 219 0 min 0 W/m 3,5 C -0,6 C 27,4 km/h (5 Bft)
28.01.2016 17:18 5,8 C 85 % 1020,4 hPa 0,0 l/m 16,3 km/h (3 Bft) W-SW 253 0 min 0 W/m 3,5 C -0,6 C 25,7 km/h (4 Bft)
28.01.2016 17:21 5,8 C 85 % 1020,5 hPa 0,0 l/m 16,9 km/h (3 Bft) W-SW 252 0 min 0 W/m 3,5 C -0,9 C 24,1 km/h (4 Bft)
28.01.2016 17:24 5,8 C 85 % 1020,4 hPa 0,0 l/m 17,6 km/h (3 Bft) W-SW 258 0 min 0 W/m 3,5 C -1,2 C 27,4 km/h (5 Bft)
28.01.2016 17:27 5,8 C 85 % 1020,5 hPa 0,0 l/m 19,1 km/h (3 Bft) SW 228 0 min 0 W/m 3,5 C -1,8 C 29,0 km/h (5 Bft)
28.01.2016 17:30 5,8 C 85 % 1020,5 hPa 0,0 l/m 20,0 km/h (4 Bft) S-SW 212 0 min 0 W/m 3,5 C -2,1 C 29,0 km/h (5 Bft)
28.01.2016 17:33 5,8 C 85 % 1020,5 hPa 0,0 l/m 20,9 km/h (4 Bft) S-SW 213 0 min 0 W/m 3,5 C -2,5 C 33,8 km/h (5 Bft)
28.01.2016 17:36 5,8 C 84 % 1020,6 hPa 0,0 l/m 20,0 km/h (4 Bft) S-SW 207 0 min 0 W/m 3,3 C -2,1 C 27,4 km/h (5 Bft)
28.01.2016 17:39 5,8 C 84 % 1020,6 hPa 0,0 l/m 18,5 km/h (3 Bft) SW 235 0 min 0 W/m 3,3 C -1,5 C 27,4 km/h (5 Bft)
28.01.2016 17:42 5,8 C 84 % 1020,6 hPa 0,0 l/m 18,8 km/h (3 Bft) SW 225 0 min 0 W/m 3,3 C -1,7 C 29,0 km/h (5 Bft)
28.01.2016 17:45 5,8 C 84 % 1020,7 hPa 0,0 l/m 18,8 km/h (3 Bft) W-SW 257 0 min 0 W/m 3,3 C -1,7 C 29,0 km/h (5 Bft)
28.01.2016 17:48 5,8 C 84 % 1020,6 hPa 0,0 l/m 21,2 km/h (4 Bft) S-SW 208 0 min 0 W/m 3,3 C -2,6 C 30,6 km/h (5 Bft)
28.01.2016 17:51 5,8 C 83 % 1020,7 hPa 0,0 l/m 19,3 km/h (3 Bft) SW 231 0 min 0 W/m 3,1 C -1,9 C 25,7 km/h (4 Bft)
28.01.2016 17:54 5,8 C 83 % 1020,6 hPa 0,0 l/m 18,9 km/h (3 Bft) S-SW 207 0 min 0 W/m 3,1 C -1,7 C 30,6 km/h (5 Bft)
28.01.2016 17:57 5,8 C 83 % 1020,6 hPa 0,0 l/m 18,3 km/h (3 Bft) W-SW 240 0 min 0 W/m 3,1 C -1,5 C 27,4 km/h (5 Bft)
28.01.2016 18:00 5,7 C 83 % 1020,6 hPa 0,0 l/m 19,1 km/h (3 Bft) S-SW 211 0 min 0 W/m 3,0 C -1,9 C 27,4 km/h (5 Bft)
28.01.2016 18:03 5,7 C 83 % 1020,6 hPa 0,0 l/m 18,8 km/h (3 Bft) S-SW 212 0 min 0 W/m 3,0 C -1,8 C 25,7 km/h (4 Bft)
28.01.2016 18:06 5,7 C 83 % 1020,6 hPa 0,0 l/m 18,4 km/h (3 Bft) W-SW 238 0 min 0 W/m 3,0 C -1,6 C 27,4 km/h (5 Bft)
28.01.2016 18:09 5,6 C 84 % 1020,6 hPa 0,0 l/m 17,9 km/h (3 Bft) W-SW 239 0 min 0 W/m 3,1 C -1,5 C 25,7 km/h (4 Bft)
28.01.2016 18:12 5,6 C 83 % 1020,6 hPa 0,0 l/m 17,7 km/h (3 Bft) SW 222 0 min 0 W/m 2,9 C -1,5 C 24,1 km/h (4 Bft)
28.01.2016 18:15 5,6 C 83 % 1020,6 hPa 0,0 l/m 17,2 km/h (3 Bft) S-SW 208 0 min 0 W/m 2,9 C -1,2 C 24,1 km/h (4 Bft)
28.01.2016 18:18 5,6 C 83 % 1020,5 hPa 0,0 l/m 16,2 km/h (3 Bft) SW 231 0 min 0 W/m 2,9 C -0,8 C 27,4 km/h (5 Bft)
28.01.2016 18:21 5,6 C 84 % 1020,5 hPa 0,0 l/m 18,1 km/h (3 Bft) SW 223 0 min 0 W/m 3,1 C -1,6 C 32,2 km/h (5 Bft)
28.01.2016 18:24 5,6 C 84 % 1020,6 hPa 0,0 l/m 15,3 km/h (3 Bft) SW 221 0 min 0 W/m 3,1 C -0,3 C 22,5 km/h (4 Bft)
28.01.2016 18:27 5,5 C 84 % 1020,7 hPa 0,0 l/m 13,8 km/h (3 Bft) SW 217 0 min 0 W/m 3,0 C 0,3 C 20,9 km/h (4 Bft)
28.01.2016 18:30 5,4 C 84 % 1020,7 hPa 0,0 l/m 11,9 km/h (2 Bft) SW 234 0 min 0 W/m 2,9 C 1,3 C 17,7 km/h (3 Bft)
28.01.2016 18:33 5,3 C 84 % 1020,7 hPa 0,0 l/m 12,5 km/h (2 Bft) S-SW 210 0 min 0 W/m 2,8 C 0,8 C 19,3 km/h (3 Bft)
28.01.2016 18:36 5,3 C 84 % 1020,7 hPa 0,0 l/m 13,1 km/h (3 Bft) S-SW 205 0 min 0 W/m 2,8 C 0,5 C 22,5 km/h (4 Bft)
28.01.2016 18:39 5,2 C 85 % 1020,7 hPa 0,0 l/m 15,4 km/h (3 Bft) SW 229 0 min 0 W/m 2,9 C -0,9 C 24,1 km/h (4 Bft)
28.01.2016 18:42 5,2 C 85 % 1020,7 hPa 0,0 l/m 14,8 km/h (3 Bft) SW 218 0 min 0 W/m 2,9 C -0,6 C 22,5 km/h (4 Bft)
28.01.2016 18:45 5,2 C 85 % 1020,7 hPa 0,0 l/m 13,4 km/h (3 Bft) W-SW 239 0 min 0 W/m 2,9 C 0,2 C 19,3 km/h (3 Bft)
28.01.2016 18:48 5,2 C 85 % 1020,8 hPa 0,0 l/m 15,0 km/h (3 Bft) SW 226 0 min 0 W/m 2,9 C -0,7 C 24,1 km/h (4 Bft)
28.01.2016 18:51 5,2 C 85 % 1020,8 hPa 0,0 l/m 21,6 km/h (4 Bft) SW 234 0 min 0 W/m 2,9 C -3,5 C 35,4 km/h (5 Bft)
28.01.2016 18:54 5,3 C 84 % 1020,7 hPa 0,0 l/m 16,9 km/h (3 Bft) SW 220 0 min 0 W/m 2,8 C -1,5 C 27,4 km/h (5 Bft)
28.01.2016 18:57 5,2 C 84 % 1020,7 hPa 0,0 l/m 20,2 km/h (4 Bft) SW 232 0 min 0 W/m 2,7 C -3,0 C 29,0 km/h (5 Bft)
28.01.2016 19:00 5,3 C 84 % 1020,7 hPa 0,0 l/m 19,3 km/h (3 Bft) S-SW 200 0 min 0 W/m 2,8 C -2,5 C 35,4 km/h (5 Bft)
28.01.2016 19:03 5,3 C 84 % 1020,6 hPa 0,0 l/m 17,5 km/h (3 Bft) SW 216 0 min 0 W/m 2,8 C -1,7 C 24,1 km/h (4 Bft)
28.01.2016 19:06 5,3 C 84 % 1020,6 hPa 0,0 l/m 19,1 km/h (3 Bft) W-SW 246 0 min 0 W/m 2,8 C -2,4 C 27,4 km/h (5 Bft)
28.01.2016 19:09 5,3 C 84 % 1020,6 hPa 0,0 l/m 21,3 km/h (4 Bft) SW 229 0 min 0 W/m 2,8 C -3,3 C 29,0 km/h (5 Bft)
28.01.2016 19:12 5,3 C 84 % 1020,6 hPa 0,0 l/m 20,0 km/h (4 Bft) S-SW 212 0 min 0 W/m 2,8 C -2,8 C 27,4 km/h (5 Bft)
28.01.2016 19:15 5,3 C 84 % 1020,6 hPa 0,0 l/m 22,0 km/h (4 Bft) SW 218 0 min 0 W/m 2,8 C -3,5 C 37,0 km/h (5 Bft)
28.01.2016 19:18 5,3 C 84 % 1020,5 hPa 0,0 l/m 21,8 km/h (4 Bft) SW 226 0 min 0 W/m 2,8 C -3,5 C 29,0 km/h (5 Bft)
28.01.2016 19:21 5,3 C 84 % 1020,4 hPa 0,0 l/m 20,3 km/h (4 Bft) SW 217 0 min 0 W/m 2,8 C -2,9 C 27,4 km/h (5 Bft)
28.01.2016 19:24 5,3 C 84 % 1020,3 hPa 0,0 l/m 19,6 km/h (3 Bft) SW 232 0 min 0 W/m 2,8 C -2,6 C 29,0 km/h (5 Bft)
28.01.2016 19:27 5,2 C 84 % 1020,4 hPa 0,0 l/m 19,6 km/h (3 Bft) SW 229 0 min 0 W/m 2,7 C -2,8 C 29,0 km/h (5 Bft)
28.01.2016 19:30 5,2 C 84 % 1020,3 hPa 0,0 l/m 22,9 km/h (4 Bft) SW 234 0 min 0 W/m 2,7 C -4,0 C 33,8 km/h (5 Bft)
28.01.2016 19:33 5,2 C 84 % 1020,2 hPa 0,0 l/m 22,8 km/h (4 Bft) SW 229 0 min 0 W/m 2,7 C -3,9 C 32,2 km/h (5 Bft)
28.01.2016 19:36 5,2 C 84 % 1020,2 hPa 0,0 l/m 19,7 km/h (3 Bft) W-SW 248 0 min 0 W/m 2,7 C -2,8 C 29,0 km/h (5 Bft)
28.01.2016 19:39 5,2 C 84 % 1020,1 hPa 0,0 l/m 20,0 km/h (4 Bft) SW 228 0 min 0 W/m 2,7 C -2,9 C 29,0 km/h (5 Bft)
28.01.2016 19:42 5,1 C 84 % 1020,1 hPa 0,0 l/m 22,8 km/h (4 Bft) W-SW 238 0 min 0 W/m 2,6 C -4,1 C 30,6 km/h (5 Bft)
28.01.2016 19:45 5,1 C 84 % 1020,2 hPa 0,0 l/m 22,0 km/h (4 Bft) SW 223 0 min 0 W/m 2,6 C -3,8 C 32,2 km/h (5 Bft)
28.01.2016 19:48 5,1 C 84 % 1020,1 hPa 0,0 l/m 20,6 km/h (4 Bft) SW 217 0 min 0 W/m 2,6 C -3,3 C 29,0 km/h (5 Bft)
28.01.2016 19:51 5,1 C 84 % 1020,1 hPa 0,0 l/m 19,2 km/h (3 Bft) SW 221 0 min 0 W/m 2,6 C -2,7 C 27,4 km/h (5 Bft)
28.01.2016 19:54 5,1 C 84 % 1020,1 hPa 0,0 l/m 21,5 km/h (4 Bft) SW 234 0 min 0 W/m 2,6 C -3,6 C 33,8 km/h (5 Bft)
28.01.2016 19:57 5,1 C 85 % 1020,1 hPa 0,0 l/m 19,5 km/h (3 Bft) SW 220 0 min 0 W/m 2,8 C -2,8 C 25,7 km/h (4 Bft)
28.01.2016 20:00 5,1 C 85 % 1020,0 hPa 0,0 l/m 22,2 km/h (4 Bft) W-SW 240 0 min 0 W/m 2,8 C -3,9 C 35,4 km/h (5 Bft)
28.01.2016 20:03 5,1 C 85 % 1020,0 hPa 0,0 l/m 19,8 km/h (3 Bft) W 275 0 min 0 W/m 2,8 C -3,0 C 29,0 km/h (5 Bft)
28.01.2016 20:06 5,0 C 85 % 1020,0 hPa 0,0 l/m 20,2 km/h (4 Bft) SW 223 0 min 0 W/m 2,7 C -3,3 C 30,6 km/h (5 Bft)
28.01.2016 20:09 5,0 C 85 % 1020,0 hPa 0,0 l/m 20,0 km/h (4 Bft) S-SW 201 0 min 0 W/m 2,7 C -3,2 C 27,4 km/h (5 Bft)
28.01.2016 20:12 4,9 C 85 % 1020,0 hPa 0,0 l/m 23,8 km/h (4 Bft) SW 228 0 min 0 W/m 2,6 C -4,7 C 35,4 km/h (5 Bft)
28.01.2016 20:15 5,0 C 85 % 1019,9 hPa 0,0 l/m 23,1 km/h (4 Bft) S-SW 205 0 min 0 W/m 2,7 C -4,3 C 35,4 km/h (5 Bft)
28.01.2016 20:18 5,1 C 85 % 1020,0 hPa 0,0 l/m 23,2 km/h (4 Bft) S-SW 213 0 min 0 W/m 2,8 C -4,2 C 35,4 km/h (5 Bft)
28.01.2016 20:21 5,0 C 85 % 1019,9 hPa 0,0 l/m 20,1 km/h (4 Bft) SW 225 0 min 0 W/m 2,7 C -3,2 C 29,0 km/h (5 Bft)
28.01.2016 20:24 5,0 C 85 % 1019,9 hPa 0,0 l/m 20,2 km/h (4 Bft) SW 221 0 min 0 W/m 2,7 C -3,3 C 29,0 km/h (5 Bft)
28.01.2016 20:27 5,0 C 85 % 1019,9 hPa 0,0 l/m 19,3 km/h (3 Bft) SW 225 0 min 0 W/m 2,7 C -2,9 C 27,4 km/h (5 Bft)
28.01.2016 20:30 5,0 C 85 % 1019,9 hPa 0,0 l/m 22,3 km/h (4 Bft) S-SW 200 0 min 0 W/m 2,7 C -4,0 C 38,6 km/h (6 Bft)
28.01.2016 20:33 5,0 C 85 % 1019,8 hPa 0,0 l/m 20,0 km/h (4 Bft) SW 216 0 min 0 W/m 2,7 C -3,2 C 30,6 km/h (5 Bft)
28.01.2016 20:36 4,9 C 85 % 1019,8 hPa 0,0 l/m 21,0 km/h (4 Bft) S-SW 205 0 min 0 W/m 2,6 C -3,7 C 29,0 km/h (5 Bft)
28.01.2016 20:39 4,9 C 85 % 1019,8 hPa 0,0 l/m 19,9 km/h (4 Bft) W-SW 258 0 min 0 W/m 2,6 C -3,3 C 32,2 km/h (5 Bft)
28.01.2016 20:42 4,9 C 85 % 1019,9 hPa 0,0 l/m 22,5 km/h (4 Bft) S-SW 203 0 min 0 W/m 2,6 C -4,2 C 33,8 km/h (5 Bft)
28.01.2016 20:45 4,9 C 85 % 1019,9 hPa 0,0 l/m 21,7 km/h (4 Bft) SW 227 0 min 0 W/m 2,6 C -4,0 C 33,8 km/h (5 Bft)
28.01.2016 20:48 4,9 C 85 % 1019,9 hPa 0,0 l/m 21,0 km/h (4 Bft) W-SW 244 0 min 0 W/m 2,6 C -3,7 C 29,0 km/h (5 Bft)
28.01.2016 20:51 4,9 C 85 % 1019,9 hPa 0,0 l/m 21,3 km/h (4 Bft) S 189 0 min 0 W/m 2,6 C -3,8 C 30,6 km/h (5 Bft)
28.01.2016 20:54 4,9 C 85 % 1019,9 hPa 0,0 l/m 23,2 km/h (4 Bft) S-SW 197 0 min 0 W/m 2,6 C -4,5 C 41,8 km/h (6 Bft)
28.01.2016 20:57 4,9 C 85 % 1019,8 hPa 0,0 l/m 21,4 km/h (4 Bft) SW 218 0 min 0 W/m 2,6 C -3,8 C 32,2 km/h (5 Bft)
28.01.2016 21:00 4,8 C 85 % 1019,8 hPa 0,0 l/m 19,3 km/h (3 Bft) W-SW 238 0 min 0 W/m 2,5 C -3,1 C 27,4 km/h (5 Bft)
28.01.2016 21:03 4,8 C 85 % 1019,8 hPa 0,0 l/m 23,2 km/h (4 Bft) S-SW 198 0 min 0 W/m 2,5 C -4,6 C 30,6 km/h (5 Bft)
28.01.2016 21:06 4,8 C 85 % 1019,8 hPa 0,0 l/m 20,0 km/h (4 Bft) SW 227 0 min 0 W/m 2,5 C -3,4 C 29,0 km/h (5 Bft)
28.01.2016 21:09 4,8 C 86 % 1019,8 hPa 0,0 l/m 19,3 km/h (3 Bft) W-SW 240 0 min 0 W/m 2,7 C -3,1 C 27,4 km/h (5 Bft)
28.01.2016 21:12 4,7 C 86 % 1019,9 hPa 0,0 l/m 19,5 km/h (3 Bft) SW 230 0 min 0 W/m 2,6 C -3,4 C 30,6 km/h (5 Bft)
28.01.2016 21:15 4,7 C 86 % 1019,7 hPa 0,0 l/m 19,1 km/h (3 Bft) S-SW 202 0 min 0 W/m 2,6 C -3,2 C 27,4 km/h (5 Bft)
28.01.2016 21:18 4,7 C 86 % 1019,7 hPa 0,0 l/m 20,3 km/h (4 Bft) S-SW 211 0 min 0 W/m 2,6 C -3,7 C 33,8 km/h (5 Bft)
28.01.2016 21:21 4,7 C 86 % 1019,7 hPa 0,0 l/m 19,7 km/h (3 Bft) SW 227 0 min 0 W/m 2,6 C -3,4 C 30,6 km/h (5 Bft)
28.01.2016 21:24 4,8 C 86 % 1019,7 hPa 0,0 l/m 20,2 km/h (4 Bft) W-SW 240 0 min 0 W/m 2,7 C -3,5 C 29,0 km/h (5 Bft)
28.01.2016 21:27 4,8 C 86 % 1019,7 hPa 0,0 l/m 19,8 km/h (3 Bft) W-SW 246 0 min 0 W/m 2,7 C -3,4 C 29,0 km/h (5 Bft)
28.01.2016 21:30 4,8 C 86 % 1019,8 hPa 0,0 l/m 25,4 km/h (4 Bft) W-SW 246 0 min 0 W/m 2,7 C -5,3 C 37,0 km/h (5 Bft)
28.01.2016 21:33 4,8 C 86 % 1019,8 hPa 0,0 l/m 23,1 km/h (4 Bft) S 181 0 min 0 W/m 2,7 C -4,6 C 33,8 km/h (5 Bft)
28.01.2016 21:36 4,9 C 85 % 1019,7 hPa 0,0 l/m 22,7 km/h (4 Bft) SW 217 0 min 0 W/m 2,6 C -4,3 C 35,4 km/h (5 Bft)
28.01.2016 21:39 4,9 C 86 % 1019,7 hPa 0,0 l/m 22,6 km/h (4 Bft) SW 229 0 min 0 W/m 2,8 C -4,3 C 33,8 km/h (5 Bft)
28.01.2016 21:42 4,9 C 85 % 1019,7 hPa 0,0 l/m 22,8 km/h (4 Bft) SW 229 0 min 0 W/m 2,6 C -4,3 C 33,8 km/h (5 Bft)
28.01.2016 21:45 4,9 C 85 % 1019,7 hPa 0,0 l/m 20,7 km/h (4 Bft) S 186 0 min 0 W/m 2,6 C -3,6 C 30,6 km/h (5 Bft)
28.01.2016 21:48 4,9 C 85 % 1019,7 hPa 0,0 l/m 24,0 km/h (4 Bft) W-SW 240 0 min 0 W/m 2,6 C -4,8 C 32,2 km/h (5 Bft)
28.01.2016 21:51 4,9 C 85 % 1019,7 hPa 0,0 l/m 22,8 km/h (4 Bft) W-SW 242 0 min 0 W/m 2,6 C -4,3 C 35,4 km/h (5 Bft)
28.01.2016 21:54 4,9 C 85 % 1019,6 hPa 0,0 l/m 22,2 km/h (4 Bft) SW 233 0 min 0 W/m 2,6 C -4,1 C 33,8 km/h (5 Bft)
28.01.2016 21:57 4,9 C 85 % 1019,5 hPa 0,0 l/m 19,2 km/h (3 Bft) S-SW 192 0 min 0 W/m 2,6 C -3,0 C 29,0 km/h (5 Bft)
28.01.2016 22:00 4,8 C 85 % 1019,5 hPa 0,0 l/m 19,8 km/h (3 Bft) SW 234 0 min 0 W/m 2,5 C -3,4 C 30,6 km/h (5 Bft)
28.01.2016 22:03 4,8 C 86 % 1019,6 hPa 0,0 l/m 21,9 km/h (4 Bft) SW 232 0 min 0 W/m 2,7 C -4,2 C 32,2 km/h (5 Bft)
28.01.2016 22:06 4,8 C 86 % 1019,6 hPa 0,0 l/m 21,4 km/h (4 Bft) S-SW 211 0 min 0 W/m 2,7 C -4,0 C 30,6 km/h (5 Bft)
28.01.2016 22:09 4,7 C 86 % 1019,6 hPa 0,0 l/m 20,0 km/h (4 Bft) SW 219 0 min 0 W/m 2,6 C -3,6 C 30,6 km/h (5 Bft)
28.01.2016 22:12 4,6 C 86 % 1019,6 hPa 0,0 l/m 16,1 km/h (3 Bft) W-SW 243 0 min 0 W/m 2,5 C -2,0 C 24,1 km/h (4 Bft)
28.01.2016 22:15 4,6 C 86 % 1019,6 hPa 0,0 l/m 18,8 km/h (3 Bft) W-SW 245 0 min 0 W/m 2,5 C -3,2 C 24,1 km/h (4 Bft)
28.01.2016 22:18 4,5 C 87 % 1019,6 hPa 0,0 l/m 18,1 km/h (3 Bft) S-SW 203 0 min 0 W/m 2,5 C -3,0 C 30,6 km/h (5 Bft)
28.01.2016 22:21 4,4 C 87 % 1019,6 hPa 0,0 l/m 17,6 km/h (3 Bft) SW 233 0 min 0 W/m 2,4 C -2,9 C 24,1 km/h (4 Bft)
28.01.2016 22:24 4,4 C 87 % 1019,6 hPa 0,0 l/m 18,1 km/h (3 Bft) SW 215 0 min 0 W/m 2,4 C -3,1 C 32,2 km/h (5 Bft)
28.01.2016 22:27 4,3 C 87 % 1019,5 hPa 0,0 l/m 19,9 km/h (4 Bft) SW 236 0 min 0 W/m 2,3 C -4,0 C 33,8 km/h (5 Bft)
28.01.2016 22:30 4,4 C 87 % 1019,5 hPa 0,0 l/m 21,3 km/h (4 Bft) SW 232 0 min 0 W/m 2,4 C -4,5 C 32,2 km/h (5 Bft)
28.01.2016 22:33 4,4 C 87 % 1019,5 hPa 0,0 l/m 19,9 km/h (4 Bft) S 186 0 min 0 W/m 2,4 C -3,9 C 33,8 km/h (5 Bft)
28.01.2016 22:36 4,4 C 87 % 1019,5 hPa 0,0 l/m 19,5 km/h (3 Bft) SW 219 0 min 0 W/m 2,4 C -3,7 C 30,6 km/h (5 Bft)
28.01.2016 22:39 4,4 C 86 % 1019,5 hPa 0,0 l/m 19,2 km/h (3 Bft) SW 223 0 min 0 W/m 2,3 C -3,6 C 30,6 km/h (5 Bft)
28.01.2016 22:42 4,4 C 86 % 1019,4 hPa 0,0 l/m 21,0 km/h (4 Bft) SW 225 0 min 0 W/m 2,3 C -4,3 C 27,4 km/h (5 Bft)
28.01.2016 22:45 4,4 C 86 % 1019,4 hPa 0,0 l/m 17,6 km/h (3 Bft) SW 220 0 min 0 W/m 2,3 C -2,9 C 25,7 km/h (4 Bft)
28.01.2016 22:48 4,4 C 86 % 1019,3 hPa 0,0 l/m 18,0 km/h (3 Bft) SW 234 0 min 0 W/m 2,3 C -3,1 C 25,7 km/h (4 Bft)
28.01.2016 22:51 4,4 C 86 % 1019,3 hPa 0,0 l/m 18,6 km/h (3 Bft) S-SW 203 0 min 0 W/m 2,3 C -3,4 C 30,6 km/h (5 Bft)
28.01.2016 22:54 4,3 C 86 % 1019,3 hPa 0,0 l/m 16,8 km/h (3 Bft) S-SW 213 0 min 0 W/m 2,2 C -2,7 C 24,1 km/h (4 Bft)
28.01.2016 22:57 4,3 C 86 % 1019,3 hPa 0,0 l/m 15,9 km/h (3 Bft) SW 217 0 min 0 W/m 2,2 C -2,2 C 20,9 km/h (4 Bft)
28.01.2016 23:00 4,3 C 87 % 1019,3 hPa 0,0 l/m 16,2 km/h (3 Bft) W-SW 239 0 min 0 W/m 2,3 C -2,4 C 25,7 km/h (4 Bft)
28.01.2016 23:03 4,3 C 87 % 1019,2 hPa 0,0 l/m 17,8 km/h (3 Bft) S 187 0 min 0 W/m 2,3 C -3,1 C 30,6 km/h (5 Bft)
28.01.2016 23:06 4,3 C 87 % 1019,2 hPa 0,0 l/m 17,6 km/h (3 Bft) S-SW 203 0 min 0 W/m 2,3 C -3,0 C 25,7 km/h (4 Bft)
28.01.2016 23:09 4,3 C 87 % 1019,0 hPa 0,0 l/m 18,7 km/h (3 Bft) SW 236 0 min 0 W/m 2,3 C -3,5 C 27,4 km/h (5 Bft)
28.01.2016 23:12 4,3 C 86 % 1018,9 hPa 0,0 l/m 20,0 km/h (4 Bft) SW 225 0 min 0 W/m 2,2 C -4,1 C 32,2 km/h (5 Bft)
28.01.2016 23:15 4,4 C 86 % 1018,9 hPa 0,0 l/m 20,3 km/h (4 Bft) SW 232 0 min 0 W/m 2,3 C -4,1 C 30,6 km/h (5 Bft)
28.01.2016 23:18 4,4 C 86 % 1018,9 hPa 0,0 l/m 17,5 km/h (3 Bft) W-SW 247 0 min 0 W/m 2,3 C -2,9 C 25,7 km/h (4 Bft)
28.01.2016 23:21 4,4 C 86 % 1019,0 hPa 0,0 l/m 17,6 km/h (3 Bft) S-SW 194 0 min 0 W/m 2,3 C -2,9 C 27,4 km/h (5 Bft)
28.01.2016 23:24 4,5 C 86 % 1018,9 hPa 0,0 l/m 16,5 km/h (3 Bft) SW 227 0 min 0 W/m 2,4 C -2,3 C 25,7 km/h (4 Bft)
28.01.2016 23:27 4,5 C 86 % 1018,8 hPa 0,0 l/m 19,5 km/h (3 Bft) S-SW 204 0 min 0 W/m 2,4 C -3,6 C 30,6 km/h (5 Bft)
28.01.2016 23:30 4,5 C 86 % 1018,8 hPa 0,0 l/m 20,3 km/h (4 Bft) SW 229 0 min 0 W/m 2,4 C -3,9 C 27,4 km/h (5 Bft)
28.01.2016 23:33 4,5 C 86 % 1018,8 hPa 0,0 l/m 19,3 km/h (3 Bft) SW 225 0 min 0 W/m 2,4 C -3,5 C 30,6 km/h (5 Bft)
28.01.2016 23:36 4,5 C 86 % 1018,8 hPa 0,0 l/m 20,6 km/h (4 Bft) S-SW 207 0 min 0 W/m 2,4 C -4,1 C 35,4 km/h (5 Bft)
28.01.2016 23:39 4,5 C 85 % 1018,7 hPa 0,0 l/m 20,4 km/h (4 Bft) W-SW 237 0 min 0 W/m 2,2 C -4,0 C 30,6 km/h (5 Bft)
28.01.2016 23:42 4,5 C 85 % 1018,7 hPa 0,0 l/m 20,1 km/h (4 Bft) SW 227 0 min 0 W/m 2,2 C -3,9 C 29,0 km/h (5 Bft)
28.01.2016 23:45 4,5 C 85 % 1018,7 hPa 0,0 l/m 20,1 km/h (4 Bft) SW 222 0 min 0 W/m 2,2 C -3,9 C 30,6 km/h (5 Bft)
28.01.2016 23:48 4,6 C 85 % 1018,8 hPa 0,0 l/m 20,9 km/h (4 Bft) SW 217 0 min 0 W/m 2,3 C -4,0 C 35,4 km/h (5 Bft)
28.01.2016 23:51 4,6 C 85 % 1018,8 hPa 0,0 l/m 21,5 km/h (4 Bft) W-SW 248 0 min 0 W/m 2,3 C -4,3 C 30,6 km/h (5 Bft)
28.01.2016 23:54 4,6 C 85 % 1018,7 hPa 0,0 l/m 21,4 km/h (4 Bft) S 191 0 min 0 W/m 2,3 C -4,2 C 40,2 km/h (6 Bft)
28.01.2016 23:57 4,6 C 85 % 1018,7 hPa 0,0 l/m 19,2 km/h (3 Bft) W-SW 246 0 min 0 W/m 2,3 C -3,4 C 24,1 km/h (4 Bft)
_ Min-Zeit 22:27 08:36 00:00 - 03:42 - - - - 22:54 21:30 02:18
Minimum _ 4,3 C 82 % 1004,5 hPa - 9,7 km/h (2 Bft) - - - - 2,2 C -5,3 C 16,1 km/h (3 Bft)
_ Max-Zeit 00:00 00:57 18:48 00:06 21:30 - - 08:48 12:12 00:00 03:42 20:54
Maximum _ 9,1 C 97 % 1020,8 hPa 0,2 l/m 25,4 km/h
W-SW (4 Bft)
- - 3 min 271 W/m 8,3 C 3,7 C 41,8 km/h
SW (6 Bft)
Durchschnitt _ 6,0 C 87 % 1015,4 hPa #0,6 l/m 16,6 km/h (3 Bft) SW - #2:42 h 87 W/m 4,1 C -0,4 C 27,0 km/h (5 Bft)
2016 Cux-Wetter.de -Die Nutzung der Wetterdaten nur mit ausdrcklicher Genehmigung